N4ASP-13 Weather Reports


time (UTC)temp
C
wind
direction
speed
KPH
gust
KPH
rain 1hr
cm
rain 24hr
cm
rain mn
cm
humidity
%
barometer
mb
20260508164234 17 134 4.8 16.1 0.00 0.00 0.00 46 1017.1
20260508164128 17 149 6.4 16.1 0.00 0.00 0.00 44 1017.2
20260508164027 17 150 6.4 16.1 0.00 0.00 0.00 47 1017.1
20260508163929 17 126 4.8 16.1 0.00 0.00 0.00 46 1017.1
20260508163828 17 98 4.8 14.5 0.00 0.00 0.00 48 1017.1
20260508163729 17 105 4.8 11.3 0.00 0.00 0.00 49 1017.1
20260508163623 17 51 4.8 11.3 0.00 0.00 0.00 52 1017.1
20260508163523 17 24 4.8 11.3 0.00 0.00 0.00 47 1017.1
20260508163422 16 22 4.8 11.3 0.00 0.00 0.00 47 1017.1
20260508163323 16 20 6.4 11.3 0.00 0.00 0.00 48 1017.1
20260508163222 16 20 4.8 11.3 0.00 0.00 0.00 47 1017.1
20260508163122 16 19 4.8 11.3 0.00 0.00 0.00 47 1017.2
20260508163022 16 327 4.8 11.3 0.00 0.00 0.00 46 1017.3
20260508162919 16 327 4.8 11.3 0.00 0.00 0.00 45 1017.3
20260508162820 16 319 4.8 11.3 0.00 0.00 0.00 45 1017.3
20260508162719 16 323 4.8 11.3 0.00 0.00 0.00 44 1017.2
20260508162617 16 98 4.8 11.3 0.00 0.00 0.00 46 1017.4
20260508162515 16 121 4.8 11.3 0.00 0.00 0.00 46 1017.3
20260508162416 16 121 4.8 12.9 0.00 0.00 0.00 47 1017.4
20260508162313 16 117 4.8 12.9 0.00 0.00 0.00 47 1017.4
20260508162213 16 113 4.8 12.9 0.00 0.00 0.00 45 1017.4
20260508162115 16 113 4.8 12.9 0.00 0.00 0.00 47 1017.4
20260508162014 16 113 6.4 12.9 0.00 0.00 0.00 46 1017.4
20260508161913 16 113 6.4 12.9 0.00 0.00 0.00 46 1017.4
20260508161815 16 113 6.4 12.9 0.00 0.00 0.00 48 1017.6
20260508161713 16 124 6.4 12.9 0.00 0.00 0.00 48 1017.6
20260508161612 16 125 6.4 12.9 0.00 0.00 0.00 46 1017.5
20260508161511 16 125 8.0 12.9 0.00 0.00 0.00 46 1017.6
20260508161412 16 142 6.4 12.9 0.00 0.00 0.00 50 1017.7
20260508161311 16 149 6.4 12.9 0.00 0.00 0.00 51 1017.7
20260508161213 16 78 6.4 12.9 0.00 0.00 0.00 51 1017.7
20260508161109 16 61 6.4 12.9 0.00 0.00 0.00 49 1017.7
20260508161010 16 95 6.4 12.9 0.00 0.00 0.00 48 1017.7
20260508160909 16 108 6.4 12.9 0.00 0.00 0.00 48 1017.7
20260508160810 16 97 4.8 12.9 0.00 0.00 0.00 51 1017.7
20260508160711 16 122 4.8 11.3 0.00 0.00 0.00 49 1017.8
20260508160609 16 132 3.2 11.3 0.00 0.00 0.00 50 1017.8
20260508160509 16 47 3.2 8.0 0.00 0.00 0.00 49 1017.8
20260508160412 16 331 3.2 8.0 0.00 0.00 0.00 46 1017.7
20260508160310 16 324 3.2 8.0 0.00 0.00 0.00 46 1017.8
20260508160206 16 324 4.8 8.0 0.00 0.00 0.00 47 1017.8
20260508160103 16 325 4.8 8.0 0.00 0.00 0.00 50 1017.8
20260508160004 16 355 4.8 9.7 0.00 0.00 0.00 48 1017.9
20260508155904 16 46 4.8 9.7 0.00 0.00 0.00 50 1017.9
20260508155804 16 71 4.8 9.7 0.00 0.00 0.00 48 1017.9
20260508155659 16 270 4.8 9.7 0.00 0.00 0.00 47 1017.8
20260508155600 16 310 4.8 9.7 0.00 0.00 0.00 48 1017.9
20260508155459 16 54 4.8 9.7 0.00 0.00 0.00 47 1017.8
20260508155400 16 53 3.2 9.7 0.00 0.00 0.00 50 1017.9
20260508155300 16 40 3.2 9.7 0.00 0.00 0.00 50 1017.8
20260508155200 16 44 3.2 9.7 0.00 0.00 0.00 50 1017.9
20260508155059 16 48 3.2 9.7 0.00 0.00 0.00 50 1017.9
20260508155001 16 88 3.2 8.0 0.00 0.00 0.00 50 1017.9
20260508154859 16 89 3.2 8.0 0.00 0.00 0.00 48 1017.8
20260508154800 16 61 3.2 8.0 0.00 0.00 0.00 49 1018.0
20260508154659 16 56 3.2 8.0 0.00 0.00 0.00 47 1017.9
20260508154559 16 5 3.2 8.0 0.00 0.00 0.00 47 1017.8
20260508154459 16 340 3.2 8.0 0.00 0.00 0.00 47 1017.8
20260508154400 16 340 3.2 12.9 0.00 0.00 0.00 47 1017.9
20260508154300 16 342 4.8 12.9 0.00 0.00 0.00 47 1017.9
20260508154200 16 344 4.8 12.9 0.00 0.00 0.00 48 1018.0
20260508154101 16 311 4.8 12.9 0.00 0.00 0.00 49 1018.0
20260508153959 16 46 4.8 12.9 0.00 0.00 0.00 49 1017.9
20260508153901 16 46 4.8 12.9 0.00 0.00 0.00 51 1017.9
20260508153800 16 78 4.8 12.9 0.00 0.00 0.00 49 1018.0
20260508153700 16 60 4.8 12.9 0.00 0.00 0.00 50 1018.0
20260508153559 16 265 4.8 12.9 0.00 0.00 0.00 47 1018.0
20260508153459 16 289 6.4 12.9 0.00 0.00 0.00 48 1018.0
20260508153400 16 5 4.8 12.9 0.00 0.00 0.00 48 1018.0
20260508153300 16 342 4.8 12.9 0.00 0.00 0.00 47 1017.9
20260508153200 16 309 4.8 12.9 0.00 0.00 0.00 48 1018.0
20260508153056 16 294 6.4 12.9 0.00 0.00 0.00 49 1018.0
20260508152955 16 355 6.4 12.9 0.00 0.00 0.00 50 1017.9
20260508152855 16 13 6.4 12.9 0.00 0.00 0.00 48 1017.9
20260508152756 16 311 6.4 12.9 0.00 0.00 0.00 48 1018.0
20260508152655 16 344 6.4 12.9 0.00 0.00 0.00 46 1018.0
20260508152556 16 327 6.4 12.9 0.00 0.00 0.00 47 1018.0
20260508152457 16 0 4.8 12.9 0.00 0.00 0.00 47 1018.0
20260508152355 16 331 4.8 12.9 0.00 0.00 0.00 49 1018.0
20260508152255 16 325 4.8 12.9 0.00 0.00 0.00 48 1018.1
20260508152155 16 343 4.8 12.9 0.00 0.00 0.00 49 1018.1
20260508152056 16 52 4.8 12.9 0.00 0.00 0.00 46 1018.1
20260508151955 16 74 3.2 12.9 0.00 0.00 0.00 46 1018.1
20260508151856 16 74 3.2 12.9 0.00 0.00 0.00 45 1018.1
20260508151756 16 75 3.2 8.0 0.00 0.00 0.00 50 1018.1
20260508151655 16 330 3.2 8.0 0.00 0.00 0.00 48 1018.2
20260508151556 16 76 3.2 9.7 0.00 0.00 0.00 49 1018.1
20260508151457 16 45 3.2 9.7 0.00 0.00 0.00 49 1018.1
20260508151355 16 38 3.2 9.7 0.00 0.00 0.00 48 1018.1
20260508151255 16 9 3.2 9.7 0.00 0.00 0.00 49 1018.2
20260508151156 16 5 3.2 9.7 0.00 0.00 0.00 47 1018.1
20260508151056 16 9 4.8 9.7 0.00 0.00 0.00 46 1018.1
20260508150956 16 13 4.8 9.7 0.00 0.00 0.00 47 1018.1
20260508150855 16 23 3.2 9.7 0.00 0.00 0.00 48 1018.1
20260508150755 16 32 3.2 9.7 0.00 0.00 0.00 46 1018.1
20260508150655 16 34 3.2 9.7 0.00 0.00 0.00 51 1018.1
20260508150557 16 355 3.2 8.0 0.00 0.00 0.00 52 1018.1
20260508150455 16 355 3.2 8.0 0.00 0.00 0.00 49 1018.1
20260508150356 16 355 3.2 8.0 0.00 0.00 0.00 47 1018.1
20260508150256 16 38 3.2 8.0 0.00 0.00 0.00 48 1018.1
20260508150156 16 24 3.2 8.0 0.00 0.00 0.00 49 1018.2
20260508150056 16 28 3.2 8.0 0.00 0.00 0.00 48 1018.2
20260508145957 16 5 3.2 6.4 0.00 0.00 0.00 48 1018.1
20260508145856 16 328 1.6 6.4 0.00 0.00 0.00 49 1018.1
20260508145752 16 292 1.6 6.4 0.00 0.00 0.00 50 1018.2
20260508145652 16 286 1.6 6.4 0.00 0.00 0.00 51 1018.2
20260508145551 16 286 1.6 6.4 0.00 0.00 0.00 49 1018.1
20260508145452 16 286 1.6 6.4 0.00 0.00 0.00 49 1018.1
20260508145352 15 54 1.6 6.4 0.00 0.00 0.00 48 1018.2
20260508145253 15 55 1.6 6.4 0.00 0.00 0.00 48 1018.2
20260508145153 15 76 1.6 6.4 0.00 0.00 0.00 49 1018.1
20260508145052 15 127 1.6 6.4 0.00 0.00 0.00 50 1018.1
20260508144951 15 336 1.6 6.4 0.00 0.00 0.00 50 1018.2
20260508144853 15 336 1.6 6.4 0.00 0.00 0.00 50 1018.2
20260508144752 15 332 3.2 6.4 0.00 0.00 0.00 46 1018.2
20260508144652 15 212 3.2 6.4 0.00 0.00 0.00 48 1018.2
20260508144551 15 213 3.2 9.7 0.00 0.00 0.00 49 1018.2
20260508144451 15 213 3.2 14.5 0.00 0.00 0.00 49 1018.2
20260508144352 14 296 3.2 14.5 0.00 0.00 0.00 50 1018.1
20260508144253 14 223 3.2 14.5 0.00 0.00 0.00 50 1018.2
20260508144151 14 221 4.8 14.5 0.00 0.00 0.00 54 1018.1
20260508144053 14 12 4.8 14.5 0.00 0.00 0.00 55 1018.2
20260508143953 14 332 4.8 14.5 0.00 0.00 0.00 52 1018.1
20260508143852 14 332 4.8 14.5 0.00 0.00 0.00 53 1018.3
20260508143753 14 334 4.8 14.5 0.00 0.00 0.00 51 1018.2
20260508143651 14 281 4.8 14.5 0.00 0.00 0.00 50 1018.1
20260508143551 14 273 4.8 14.5 0.00 0.00 0.00 52 1018.1
20260508143452 14 334 4.8 12.9 0.00 0.00 0.00 50 1018.2
20260508143352 14 336 4.8 12.9 0.00 0.00 0.00 50 1018.1
20260508143253 14 330 4.8 12.9 0.00 0.00 0.00 50 1018.2
20260508143151 14 315 4.8 12.9 0.00 0.00 0.00 50 1018.1
20260508143051 14 304 4.8 12.9 0.00 0.00 0.00 50 1018.2
20260508142951 14 313 3.2 12.9 0.00 0.00 0.00 52 1018.2
20260508142851 14 318 3.2 8.0 0.00 0.00 0.00 53 1018.1
20260508142751 14 5 3.2 8.0 0.00 0.00 0.00 52 1018.2
20260508142652 14 328 3.2 8.0 0.00 0.00 0.00 50 1018.2
20260508142552 14 331 3.2 8.0 0.00 0.00 0.00 49 1018.1
20260508142448 14 306 3.2 8.0 0.00 0.00 0.00 48 1018.1
20260508142347 14 297 3.2 6.4 0.00 0.00 0.00 49 1018.2
20260508142249 13 297 3.2 6.4 0.00 0.00 0.00 48 1018.1
20260508142147 13 297 3.2 6.4 0.00 0.00 0.00 48 1018.1
20260508142049 13 290 3.2 9.7 0.00 0.00 0.00 50 1018.1
20260508141948 13 309 4.8 9.7 0.00 0.00 0.00 52 1018.1
20260508141847 13 310 4.8 9.7 0.00 0.00 0.00 51 1018.2
20260508141748 13 317 4.8 9.7 0.00 0.00 0.00 51 1018.1
20260508141648 13 312 4.8 11.3 0.00 0.00 0.00 49 1018.1
20260508141548 13 291 4.8 11.3 0.00 0.00 0.00 51 1018.1
20260508141447 13 300 4.8 11.3 0.00 0.00 0.00 53 1018.1
20260508141347 13 336 4.8 11.3 0.00 0.00 0.00 52 1018.1
20260508141248 13 336 4.8 11.3 0.00 0.00 0.00 51 1018.1
20260508141147 13 282 4.8 11.3 0.00 0.00 0.00 52 1018.1
20260508141049 13 351 4.8 11.3 0.00 0.00 0.00 51 1018.1
20260508140949 13 340 4.8 11.3 0.00 0.00 0.00 50 1018.2
20260508140848 13 330 4.8 11.3 0.00 0.00 0.00 53 1018.1
20260508140747 13 309 3.2 11.3 0.00 0.00 0.00 52 1018.1
20260508140647 13 327 3.2 9.7 0.00 0.00 0.00 52 1018.1
20260508140549 13 337 3.2 9.7 0.00 0.00 0.00 53 1018.2
20260508140448 13 153 3.2 8.0 0.00 0.00 0.00 53 1018.2
20260508140348 13 275 3.2 8.0 0.00 0.00 0.00 54 1018.1
20260508140249 13 273 3.2 8.0 0.00 0.00 0.00 52 1018.1
20260508140147 13 273 3.2 8.0 0.00 0.00 0.00 51 1018.2
20260508140048 13 309 3.2 8.0 0.00 0.00 0.00 52 1018.1
20260508135948 13 305 3.2 8.0 0.00 0.00 0.00 52 1018.2
20260508135840 13 229 3.2 8.0 0.00 0.00 0.00 52 1018.1
20260508135740 13 299 3.2 8.0 0.00 0.00 0.00 53 1018.1
20260508135540 13 298 3.2 6.4 0.00 0.00 0.00 52 1018.0
20260508135439 13 297 3.2 6.4 0.00 0.00 0.00 54 1018.1
20260508135341 13 294 3.2 6.4 0.00 0.00 0.00 54 1018.1
20260508135239 13 291 3.2 6.4 0.00 0.00 0.00 53 1018.1
20260508135140 13 291 3.2 6.4 0.00 0.00 0.00 52 1018.0
20260508135039 12 311 3.2 6.4 0.00 0.00 0.00 53 1018.0
20260508134940 12 312 3.2 6.4 0.00 0.00 0.00 54 1018.0
20260508134841 12 312 3.2 8.0 0.00 0.00 0.00 55 1017.9
20260508134739 12 312 3.2 8.0 0.00 0.00 0.00 55 1018.1
20260508134641 12 313 4.8 8.0 0.00 0.00 0.00 55 1017.9
20260508134541 12 313 4.8 9.7 0.00 0.00 0.00 53 1018.0
20260508134440 12 312 4.8 9.7 0.00 0.00 0.00 52 1018.0
20260508134340 12 312 4.8 9.7 0.00 0.00 0.00 54 1017.9
20260508134241 12 313 4.8 9.7 0.00 0.00 0.00 53 1017.9
20260508134139 12 313 4.8 9.7 0.00 0.00 0.00 55 1018.0
20260508134039 12 295 4.8 9.7 0.00 0.00 0.00 55 1017.9
20260508133940 12 274 4.8 9.7 0.00 0.00 0.00 56 1017.9
20260508133840 12 289 4.8 9.7 0.00 0.00 0.00 57 1017.9
20260508133741 12 319 4.8 9.7 0.00 0.00 0.00 54 1017.8
20260508133639 12 306 4.8 9.7 0.00 0.00 0.00 55 1017.8
20260508133539 12 317 4.8 8.0 0.00 0.00 0.00 55 1017.8
20260508133439 12 296 4.8 8.0 0.00 0.00 0.00 56 1017.8
20260508133340 12 287 4.8 8.0 0.00 0.00 0.00 55 1017.8
20260508133235 12 317 4.8 8.0 0.00 0.00 0.00 55 1017.7
20260508133136 12 307 4.8 8.0 0.00 0.00 0.00 55 1017.9
20260508133035 12 316 4.8 9.7 0.00 0.00 0.00 57 1017.8
20260508132935 12 279 4.8 9.7 0.00 0.00 0.00 57 1017.8
20260508132831 12 321 4.8 9.7 0.00 0.00 0.00 58 1017.8
20260508132724 12 328 4.8 9.7 0.00 0.00 0.00 57 1017.8
20260508132625 12 308 4.8 9.7 0.00 0.00 0.00 59 1017.8
20260508132528 12 310 4.8 9.7 0.00 0.00 0.00 56 1017.8
20260508132425 12 333 4.8 9.7 0.00 0.00 0.00 57 1017.7
20260508132322 12 337 4.8 9.7 0.00 0.00 0.00 58 1017.8
20260508132217 12 337 4.8 9.7 0.00 0.00 0.00 58 1017.8
20260508132117 12 317 4.8 9.7 0.00 0.00 0.00 57 1017.8
20260508132019 12 315 4.8 9.7 0.00 0.00 0.00 57 1017.8
20260508131918 12 312 4.8 9.7 0.00 0.00 0.00 58 1017.8
20260508131815 12 337 4.8 8.0 0.00 0.00 0.00 58 1017.8
20260508131713 12 348 4.8 8.0 0.00 0.00 0.00 58 1017.8
20260508131612 12 309 4.8 8.0 0.00 0.00 0.00 57 1017.8
20260508131512 12 290 4.8 8.0 0.00 0.00 0.00 58 1017.9
20260508131411 12 295 4.8 8.0 0.00 0.00 0.00 58 1017.8
20260508131309 12 327 3.2 8.0 0.00 0.00 0.00 58 1017.7
20260508131202 12 338 3.2 8.0 0.00 0.00 0.00 58 1017.7
20260508131102 12 340 3.2 8.0 0.00 0.00 0.00 58 1017.8
20260508131002 12 340 3.2 8.0 0.00 0.00 0.00 57 1017.7
20260508130902 12 355 4.8 8.0 0.00 0.00 0.00 58 1017.7
20260508130800 12 313 4.8 8.0 0.00 0.00 0.00 58 1017.7
20260508130655 12 313 4.8 8.0 0.00 0.00 0.00 58 1017.7
20260508130556 12 325 4.8 8.0 0.00 0.00 0.00 59 1017.7
20260508130456 12 319 4.8 8.0 0.00 0.00 0.00 58 1017.7
20260508130355 12 338 4.8 8.0 0.00 0.00 0.00 58 1017.8
20260508130254 12 309 4.8 8.0 0.00 0.00 0.00 59 1017.7
20260508130150 12 319 4.8 8.0 0.00 0.00 0.00 59 1017.8
20260508130050 12 317 4.8 8.0 0.00 0.00 0.00 58 1017.8
20260508125949 12 323 4.8 8.0 0.00 0.00 0.00 59 1017.8
20260508125851 12 355 4.8 8.0 0.00 0.00 0.00 58 1017.8
20260508125748 12 350 4.8 8.0 0.00 0.00 0.00 57 1017.8
20260508125639 12 336 4.8 8.0 0.00 0.00 0.00 58 1017.7
20260508125539 12 300 3.2 8.0 0.00 0.00 0.00 58 1017.8
20260508125437 12 300 3.2 8.0 0.00 0.00 0.00 59 1017.8
20260508125338 12 304 3.2 8.0 0.00 0.00 0.00 57 1017.8
20260508125236 12 304 4.8 8.0 0.00 0.00 0.00 58 1017.8
20260508125135 12 303 3.2 8.0 0.00 0.00 0.00 58 1017.8
20260508125033 12 306 3.2 8.0 0.00 0.00 0.00 59 1017.8
20260508124932 12 343 3.2 8.0 0.00 0.00 0.00 59 1017.8
20260508124832 12 342 3.2 8.0 0.00 0.00 0.00 62 1017.8
20260508124729 11 271 3.2 8.0 0.00 0.00 0.00 61 1017.8
20260508124627 11 344 3.2 8.0 0.00 0.00 0.00 62 1017.7
20260508124525 11 347 3.2 8.0 0.00 0.00 0.00 63 1017.8
20260508124425 11 351 3.2 8.0 0.00 0.00 0.00 60 1017.8
20260508124326 11 347 4.8 8.0 0.00 0.00 0.00 60 1017.7
20260508124224 11 5 3.2 6.4 0.00 0.00 0.00 61 1017.7
20260508124120 11 328 3.2 6.4 0.00 0.00 0.00 61 1017.7
20260508124019 11 328 4.8 6.4 0.00 0.00 0.00 62 1017.6
20260508123916 11 349 4.8 6.4 0.00 0.00 0.00 63 1017.6
20260508123815 11 349 4.8 6.4 0.00 0.00 0.00 63 1017.7
20260508123714 11 350 4.8 6.4 0.00 0.03 0.00 64 1017.7
20260508123611 11 333 4.8 6.4 0.00 0.03 0.00 64 1017.7
20260508123512 11 336 4.8 6.4 0.00 0.03 0.00 65 1017.7
20260508123409 11 323 4.8 6.4 0.00 0.03 0.00 64 1017.6
20260508123310 11 350 4.8 6.4 0.00 0.03 0.00 64 1017.7
20260508123208 11 342 4.8 6.4 0.00 0.03 0.00 64 1017.7
20260508123101 11 341 4.8 6.4 0.00 0.03 0.00 63 1017.6
20260508123001 11 280 4.8 6.4 0.00 0.03 0.00 63 1017.6
20260508122905 11 329 4.8 6.4 0.00 0.03 0.00 64 1017.6
20260508122802 11 344 4.8 6.4 0.00 0.03 0.00 66 1017.7
20260508122702 11 54 4.8 6.4 0.00 0.03 0.00 66 1017.5
20260508122553 11 54 4.8 8.0 0.00 0.03 0.00 66 1017.5
20260508122451 11 82 4.8 8.0 0.00 0.03 0.00 66 1017.6
20260508122352 11 344 4.8 8.0 0.00 0.03 0.00 65 1017.5
20260508122251 11 345 4.8 11.3 0.00 0.03 0.00 64 1017.6
20260508122152 11 344 4.8 11.3 0.00 0.03 0.00 64 1017.6
20260508122049 11 345 4.8 11.3 0.00 0.03 0.00 63 1017.5
20260508121950 11 344 4.8 11.3 0.00 0.03 0.00 65 1017.6
20260508121848 10 344 4.8 11.3 0.00 0.05 0.00 63 1017.5
20260508121748 10 344 4.8 11.3 0.00 0.05 0.00 63 1017.5
20260508121645 10 313 4.8 11.3 0.00 0.05 0.00 63 1017.4
20260508121541 10 295 4.8 11.3 0.00 0.05 0.00 63 1017.4
20260508121443 10 306 4.8 11.3 0.00 0.05 0.00 62 1017.4
20260508121341 10 304 4.8 11.3 0.00 0.05 0.00 63 1017.4
20260508121242 10 286 4.8 8.0 0.00 0.05 0.00 63 1017.4
20260508121139 10 301 4.8 6.4 0.00 0.05 0.00 64 1017.5
20260508121030 10 302 3.2 6.4 0.00 0.08 0.00 64 1017.4
20260508120930 10 302 3.2 6.4 0.00 0.08 0.00 64 1017.4
20260508120831 10 302 3.2 6.4 0.00 0.08 0.00 63 1017.4
20260508120729 10 315 3.2 6.4 0.00 0.08 0.00 63 1017.4
20260508120630 10 306 3.2 6.4 0.00 0.08 0.00 66 1017.4
20260508120523 10 305 3.2 6.4 0.00 0.08 0.00 65 1017.4
20260508120424 10 291 3.2 6.4 0.00 0.08 0.00 65 1017.3
20260508120324 10 291 3.2 6.4 0.00 0.08 0.00 64 1017.3
20260508120224 10 292 3.2 6.4 0.00 0.08 0.00 66 1017.3
20260508120124 10 296 3.2 6.4 0.00 0.08 0.00 66 1017.3
20260508120020 10 295 3.2 6.4 0.00 0.08 0.00 65 1017.2
20260508115918 10 296 3.2 6.4 0.00 0.10 0.00 66 1017.3
20260508115818 10 304 3.2 6.4 0.00 0.10 0.00 66 1017.3
20260508115717 10 305 3.2 6.4 0.00 0.10 0.00 66 1017.3
20260508115617 10 288 3.2 6.4 0.00 0.10 0.00 67 1017.2
20260508115511 10 336 3.2 6.4 0.00 0.10 0.00 66 1017.2
20260508115409 10 338 3.2 6.4 0.00 0.10 0.00 65 1017.3
20260508115309 10 340 3.2 6.4 0.00 0.10 0.00 65 1017.2
20260508115210 10 340 3.2 4.8 0.00 0.10 0.00 65 1017.3
20260508115107 10 314 3.2 4.8 0.00 0.10 0.00 65 1017.1
20260508115002 10 313 3.2 4.8 0.00 0.10 0.00 65 1017.2
20260508114901 10 313 1.6 4.8 0.00 0.10 0.00 65 1017.1
20260508114802 10 314 1.6 4.8 0.00 0.10 0.00 66 1017.1
20260508114702 10 313 1.6 4.8 0.00 0.10 0.00 67 1017.1
20260508114602 10 313 1.6 4.8 0.00 0.10 0.00 68 1017.1
20260508114459 10 312 1.6 4.8 0.00 0.10 0.00 68 1017.0
20260508114400 10 298 1.6 4.8 0.00 0.10 0.00 67 1017.0
20260508114259 10 289 1.6 4.8 0.00 0.10 0.00 69 1016.9
20260508114158 10 202 1.6 6.4 0.00 0.10 0.00 72 1017.0
20260508114056 10 202 1.6 6.4 0.00 0.10 0.00 72 1017.0
20260508113948 10 187 1.6 6.4 0.00 0.10 0.00 70 1017.0
20260508113846 10 180 1.6 6.4 0.00 0.10 0.00 69 1016.9
20260508113745 10 180 3.2 6.4 0.00 0.10 0.00 67 1016.9
20260508113646 10 181 3.2 6.4 0.00 0.10 0.00 68 1017.0
20260508113546 10 181 3.2 6.4 0.00 0.10 0.00 67 1016.9
20260508113445 10 181 3.2 6.4 0.00 0.10 0.00 68 1016.9
20260508113344 10 263 3.2 6.4 0.00 0.10 0.00 67 1016.9
20260508113243 10 263 1.6 6.4 0.00 0.10 0.00 67 1016.7
20260508113141 10 257 1.6 4.8 0.00 0.10 0.00 67 1016.9
20260508113039 10 255 1.6 4.8 0.00 0.10 0.00 67 1016.9
20260508112938 10 255 1.6 4.8 0.00 0.10 0.00 68 1016.7
20260508112838 10 255 1.6 4.8 0.00 0.13 0.00 68 1016.7
20260508112735 10 254 0.0 4.8 0.00 0.13 0.00 68 1016.7
20260508112636 10 251 0.0 4.8 0.00 0.13 0.00 69 1016.6
20260508112534 10 240 0.0 0.0 0.00 0.13 0.00 69 1016.6
20260508112425 10 240 0.0 0.0 0.00 0.13 0.00 69 1016.7
20260508112325 10 240 0.0 0.0 0.00 0.13 0.00 69 1016.6
20260508112227 10 240 0.0 0.0 0.00 0.13 0.00 68 1016.6
20260508112126 9 240 0.0 0.0 0.00 0.13 0.00 68 1016.6
20260508112023 9 240 0.0 0.0 0.00 0.13 0.00 69 1016.6
20260508111924 9 240 0.0 0.0 0.00 0.13 0.00 70 1016.5
20260508111822 9 240 0.0 0.0 0.00 0.13 0.00 71 1016.5
20260508111722 9 240 0.0 0.0 0.00 0.13 0.00 71 1016.6
20260508111619 9 240 0.0 0.0 0.00 0.13 0.00 72 1016.6
20260508111518 9 240 0.0 0.0 0.00 0.13 0.00 72 1016.5
20260508111413 9 240 0.0 0.0 0.00 0.15 0.00 72 1016.6
20260508111312 9 240 0.0 0.0 0.00 0.15 0.00 71 1016.6
20260508111209 9 240 0.0 0.0 0.00 0.15 0.00 71 1016.5
20260508111110 8 240 0.0 0.0 0.00 0.15 0.00 71 1016.5
20260508111007 8 240 0.0 0.0 0.00 0.15 0.00 72 1016.4
20260508110901 8 240 0.0 0.0 0.00 0.15 0.00 71 1016.4
20260508110802 8 240 0.0 0.0 0.00 0.15 0.00 71 1016.4
20260508110701 8 240 0.0 0.0 0.00 0.15 0.00 71 1016.4
20260508110600 8 240 0.0 0.0 0.00 0.15 0.00 70 1016.4
20260508110457 8 240 0.0 0.0 0.00 0.15 0.00 71 1016.4
20260508110359 8 240 0.0 0.0 0.00 0.15 0.00 70 1016.4
20260508110255 8 240 0.0 0.0 0.00 0.15 0.00 71 1016.4
20260508110154 8 240 0.0 1.6 0.00 0.15 0.00 71 1016.4
20260508110053 8 240 0.0 1.6 0.00 0.18 0.00 71 1016.3
20260508105951 8 240 0.0 1.6 0.00 0.18 0.00 70 1016.3
20260508105852 8 240 0.0 1.6 0.00 0.18 0.00 70 1016.3
20260508105750 8 240 0.0 3.2 0.00 0.18 0.00 71 1016.2
20260508105647 8 240 0.0 3.2 0.00 0.18 0.00 71 1016.2
20260508105548 8 240 1.6 3.2 0.00 0.18 0.00 70 1016.3
20260508105446 8 240 1.6 6.4 0.00 0.18 0.00 71 1016.2
20260508105343 8 239 1.6 6.4 0.00 0.18 0.00 70 1016.2
20260508105240 8 239 1.6 6.4 0.00 0.18 0.00 70 1016.2
20260508105138 8 239 1.6 6.4 0.00 0.18 0.00 71 1016.2
20260508105037 8 239 1.6 6.4 0.00 0.18 0.00 71 1016.2
20260508104836 8 240 1.6 6.4 0.00 0.18 0.00 71 1016.1
20260508104734 8 269 1.6 6.4 0.00 0.18 0.00 71 1016.1
20260508104631 8 269 1.6 6.4 0.00 0.18 0.00 71 1016.2
20260508104532 8 269 1.6 6.4 0.00 0.18 0.00 71 1016.1
20260508104430 8 265 1.6 4.8 0.00 0.18 0.00 71 1016.1
20260508104324 8 265 1.6 4.8 0.00 0.18 0.00 71 1016.0
20260508104223 8 265 1.6 4.8 0.00 0.18 0.00 71 1016.0
20260508104125 8 300 1.6 4.8 0.00 0.18 0.00 71 1016.0
20260508104023 8 300 1.6 4.8 0.00 0.18 0.00 71 1016.0
20260508103924 7 300 1.6 4.8 0.00 0.18 0.00 71 1016.0
20260508103815 7 300 1.6 4.8 0.00 0.18 0.00 71 1016.0
20260508103716 7 300 1.6 4.8 0.00 0.18 0.00 71 1016.0
20260508103616 7 300 1.6 4.8 0.00 0.18 0.00 71 1016.0
20260508103516 7 300 1.6 4.8 0.00 0.18 0.00 71 1016.0
20260508103414 7 297 0.0 4.8 0.00 0.18 0.00 71 1016.0
20260508103311 7 298 0.0 3.2 0.00 0.18 0.00 71 1016.0
20260508103212 7 295 0.0 1.6 0.00 0.18 0.00 71 1015.9
20260508103111 7 295 0.0 1.6 0.00 0.18 0.00 71 1015.9
20260508103011 7 295 0.0 3.2 0.00 0.18 0.00 71 1016.0
20260508102907 7 295 1.6 3.2 0.00 0.18 0.00 71 1015.8
20260508102802 8 295 1.6 3.2 0.00 0.18 0.00 71 1015.8
20260508102701 8 295 1.6 3.2 0.00 0.18 0.00 72 1015.9
20260508102602 8 295 1.6 3.2 0.00 0.18 0.00 72 1015.9
20260508102500 8 295 1.6 3.2 0.00 0.18 0.00 72 1015.8
20260508102402 8 295 1.6 4.8 0.00 0.18 0.00 72 1015.9
20260508102251 8 295 1.6 4.8 0.00 0.18 0.00 72 1015.9
20260508102152 8 295 1.6 4.8 0.00 0.18 0.00 72 1015.9
20260508102051 8 295 1.6 4.8 0.00 0.18 0.00 72 1015.8
20260508101952 8 295 1.6 4.8 0.00 0.18 0.00 73 1015.8
20260508101851 8 297 1.6 4.8 0.00 0.18 0.00 73 1015.8
20260508101751 8 298 1.6 4.8 0.00 0.18 0.00 71 1015.8
20260508101650 8 298 1.6 4.8 0.00 0.18 0.00 70 1015.8
20260508101549 8 296 1.6 8.0 0.00 0.18 0.00 70 1015.7
20260508101448 8 296 1.6 8.0 0.00 0.18 0.00 70 1015.7
20260508101346 8 296 1.6 8.0 0.00 0.18 0.00 71 1015.7
20260508101246 8 296 3.2 8.0 0.00 0.18 0.00 70 1015.6
20260508101145 8 296 3.2 8.0 0.00 0.18 0.00 70 1015.7
20260508101042 8 296 3.2 8.0 0.00 0.18 0.00 70 1015.5
20260508100942 8 296 3.2 8.0 0.00 0.18 0.00 70 1015.6
20260508100839 8 296 3.2 8.0 0.00 0.18 0.00 70 1015.6
20260508100733 8 308 3.2 8.0 0.00 0.18 0.00 70 1015.6
20260508100633 8 311 3.2 8.0 0.00 0.18 0.00 71 1015.6
20260508100534 8 286 3.2 6.4 0.00 0.18 0.00 71 1015.5
20260508100431 8 286 3.2 6.4 0.00 0.18 0.00 70 1015.6
20260508100330 8 286 3.2 6.4 0.00 0.18 0.00 71 1015.6
20260508100226 8 284 3.2 6.4 0.00 0.18 0.00 70 1015.5
20260508100122 8 287 4.8 8.0 0.00 0.18 0.00 71 1015.6
20260508100025 8 287 4.8 8.0 0.00 0.18 0.00 70 1015.6
20260508095924 8 289 3.2 8.0 0.00 0.18 0.00 71 1015.6
20260508095824 8 281 3.2 8.0 0.00 0.18 0.00 70 1015.6
20260508095720 8 265 3.2 8.0 0.00 0.18 0.00 71 1015.6
20260508095618 8 295 3.2 8.0 0.00 0.18 0.00 71 1015.6
20260508095519 8 291 4.8 8.0 0.00 0.18 0.00 71 1015.5
20260508095420 8 288 3.2 8.0 0.00 0.18 0.00 71 1015.6
20260508095318 8 284 3.2 8.0 0.00 0.18 0.00 71 1015.6
20260508095211 8 297 3.2 8.0 0.00 0.18 0.00 71 1015.5
20260508095111 8 288 3.2 8.0 0.00 0.18 0.00 71 1015.5
20260508095011 8 290 3.2 8.0 0.00 0.18 0.00 71 1015.5
20260508094910 8 291 3.2 8.0 0.00 0.18 0.00 71 1015.5
20260508094808 8 291 3.2 8.0 0.00 0.18 0.00 71 1015.6
20260508094705 8 291 3.2 8.0 0.00 0.18 0.00 71 1015.6
20260508094605 8 272 3.2 6.4 0.00 0.18 0.00 71 1015.5
20260508094505 8 273 3.2 6.4 0.00 0.18 0.00 71 1015.5
20260508094404 8 273 3.2 6.4 0.00 0.18 0.00 71 1015.5
20260508094301 8 287 3.2 6.4 0.00 0.18 0.00 71 1015.5
20260508094158 8 287 3.2 6.4 0.00 0.18 0.00 70 1015.5
20260508094057 8 293 3.2 6.4 0.00 0.18 0.00 70 1015.5
20260508093956 8 273 3.2 6.4 0.00 0.18 0.00 70 1015.6
20260508093858 8 306 3.2 6.4 0.00 0.18 0.00 70 1015.4
20260508093755 8 306 3.2 6.4 0.00 0.18 0.00 70 1015.5
20260508093647 8 306 3.2 9.7 0.00 0.18 0.00 69 1015.5
20260508093544 8 306 3.2 9.7 0.00 0.18 0.00 69 1015.4
20260508093446 8 306 3.2 9.7 0.00 0.18 0.00 69 1015.5
20260508093346 8 307 3.2 9.7 0.00 0.18 0.00 69 1015.5
20260508093245 8 307 3.2 9.7 0.00 0.18 0.00 69 1015.5
20260508093146 8 307 4.8 9.7 0.00 0.18 0.00 69 1015.5
20260508093043 8 307 3.2 9.7 0.00 0.18 0.00 69 1015.4
20260508092944 8 309 3.2 9.7 0.00 0.18 0.00 69 1015.5
20260508092842 8 309 4.8 9.7 0.00 0.18 0.00 69 1015.4
20260508092740 8 310 4.8 9.7 0.00 0.18 0.00 69 1015.4
20260508092638 8 311 4.8 11.3 0.00 0.18 0.00 69 1015.4
20260508092537 9 311 4.8 11.3 0.00 0.18 0.00 69 1015.3
20260508092437 9 311 4.8 11.3 0.00 0.18 0.00 69 1015.4
20260508092336 9 311 4.8 11.3 0.00 0.18 0.00 69 1015.3
20260508092234 9 313 4.8 12.9 0.00 0.18 0.00 69 1015.3
20260508092127 9 297 4.8 12.9 0.00 0.18 0.00 69 1015.3
20260508092027 9 308 4.8 12.9 0.00 0.18 0.00 70 1015.3
20260508091926 9 305 4.8 12.9 0.00 0.18 0.00 70 1015.3
20260508091825 9 317 4.8 12.9 0.00 0.18 0.00 69 1015.3
20260508091724 9 299 4.8 12.9 0.00 0.18 0.00 69 1015.3
20260508091618 9 303 4.8 12.9 0.00 0.18 0.00 70 1015.4
20260508091518 9 304 6.4 12.9 0.00 0.18 0.00 69 1015.3
20260508091417 9 303 6.4 12.9 0.00 0.18 0.00 70 1015.3
20260508091316 9 279 6.4 12.9 0.00 0.18 0.00 70 1015.3
20260508091218 9 309 6.4 12.9 0.00 0.18 0.00 71 1015.1
20260508091111 9 279 4.8 12.9 0.00 0.18 0.00 72 1015.1
20260508091011 9 276 4.8 12.9 0.00 0.18 0.00 71 1015.1
20260508090912 9 268 4.8 12.9 0.00 0.18 0.00 70 1015.0
20260508090812 9 287 4.8 12.9 0.00 0.18 0.00 71 1015.0
20260508090712 9 313 4.8 12.9 0.00 0.18 0.00 70 1015.1
20260508090602 9 330 4.8 12.9 0.00 0.18 0.00 70 1015.1
20260508090500 9 306 3.2 12.9 0.00 0.18 0.00 70 1015.1
20260508090402 9 313 3.2 12.9 0.00 0.18 0.00 71 1015.3
20260508090302 9 289 3.2 8.0 0.00 0.18 0.00 72 1015.1
20260508090202 9 310 3.2 8.0 0.00 0.18 0.00 72 1015.3
20260508090058 9 311 3.2 8.0 0.00 0.18 0.00 72 1015.1
20260508085956 9 336 3.2 8.0 0.00 0.18 0.00 72 1015.3
20260508085854 9 297 3.2 8.0 0.00 0.18 0.00 71 1015.1
20260508085756 9 300 3.2 8.0 0.00 0.18 0.00 71 1015.1
20260508085656 9 304 3.2 8.0 0.00 0.18 0.00 71 1015.1
20260508085551 9 298 3.2 8.0 0.00 0.18 0.00 71 1015.3
20260508085452 9 302 3.2 8.0 0.00 0.18 0.00 71 1015.3
20260508085351 9 305 3.2 8.0 0.00 0.18 0.00 71 1015.1
20260508085250 9 306 3.2 8.0 0.00 0.18 0.00 71 1015.3
20260508085150 9 309 3.2 9.7 0.00 0.18 0.00 71 1015.3
20260508085042 9 295 3.2 9.7 0.00 0.18 0.00 70 1015.3
20260508084944 9 295 3.2 9.7 0.00 0.18 0.00 70 1015.3
20260508084840 9 296 4.8 11.3 0.00 0.18 0.00 71 1015.1
20260508084742 9 300 4.8 11.3 0.00 0.18 0.00 71 1015.1
20260508084640 9 300 4.8 11.3 0.00 0.18 0.00 71 1015.1
20260508084536 9 300 4.8 11.3 0.00 0.18 0.00 70 1015.1
20260508084438 9 300 4.8 11.3 0.00 0.18 0.00 70 1015.1
20260508084335 9 297 4.8 11.3 0.00 0.18 0.00 70 1015.1
20260508084236 9 292 4.8 11.3 0.00 0.18 0.00 70 1015.0
20260508084134 9 282 4.8 11.3 0.00 0.18 0.00 70 1015.1
20260508084028 9 311 4.8 11.3 0.00 0.18 0.00 70 1015.0
20260508083927 9 286 4.8 11.3 0.00 0.18 0.00 70 1015.0
20260508083828 9 313 4.8 9.7 0.00 0.18 0.00 71 1015.1
20260508083727 9 290 4.8 12.9 0.00 0.18 0.00 71 1015.1
20260508083627 9 294 6.4 12.9 0.00 0.18 0.00 70 1015.1
20260508083520 9 294 6.4 12.9 0.00 0.18 0.00 70 1015.1
20260508083421 9 296 6.4 12.9 0.00 0.18 0.00 70 1015.1
20260508083320 9 292 6.4 12.9 0.00 0.18 0.00 70 1015.1
20260508083220 9 290 6.4 12.9 0.00 0.18 0.00 70 1015.1
20260508083117 9 292 6.4 12.9 0.00 0.18 0.00 70 1015.0
20260508083012 9 293 6.4 12.9 0.00 0.18 0.00 69 1015.1
20260508082913 9 304 6.4 12.9 0.00 0.18 0.00 69 1015.0
20260508082812 9 318 6.4 12.9 0.00 0.18 0.00 69 1015.0
20260508082711 9 317 6.4 11.3 0.00 0.18 0.00 69 1015.0
20260508082611 9 311 6.4 12.9 0.00 0.18 0.00 70 1014.9
20260508082504 9 297 6.4 12.9 0.00 0.18 0.00 70 1015.0
20260508082406 9 296 6.4 12.9 0.00 0.18 0.00 70 1015.0
20260508082306 9 289 6.4 12.9 0.00 0.18 0.00 70 1015.0
20260508082205 10 301 6.4 12.9 0.00 0.18 0.00 70 1014.9
20260508082105 9 304 6.4 12.9 0.00 0.18 0.00 70 1014.9
20260508082000 9 313 6.4 12.9 0.00 0.18 0.00 70 1014.9
20260508081902 9 288 6.4 12.9 0.00 0.18 0.00 70 1015.0
20260508081801 9 311 6.4 12.9 0.00 0.18 0.00 70 1015.0
20260508081702 9 304 6.4 12.9 0.00 0.18 0.00 70 1015.0
20260508081602 9 309 6.4 11.3 0.00 0.18 0.00 70 1015.0
20260508081501 9 293 6.4 11.3 0.00 0.18 0.00 70 1015.0
20260508081401 9 291 6.4 11.3 0.00 0.18 0.00 70 1015.0
20260508081302 9 298 6.4 11.3 0.00 0.18 0.00 70 1015.0
20260508081158 9 288 6.4 11.3 0.00 0.18 0.00 71 1015.0
20260508081059 9 291 6.4 11.3 0.00 0.18 0.00 71 1015.0
20260508080958 9 302 6.4 11.3 0.00 0.18 0.00 71 1014.9
20260508080857 9 310 6.4 12.9 0.00 0.18 0.00 71 1014.8
20260508080757 9 304 6.4 12.9 0.00 0.18 0.00 71 1014.9
20260508080658 9 300 6.4 12.9 0.00 0.18 0.00 71 1014.8
20260508080556 9 303 6.4 12.9 0.00 0.18 0.00 71 1014.8
20260508080458 9 299 6.4 12.9 0.00 0.18 0.00 71 1014.8
20260508080357 9 307 6.4 12.9 0.00 0.18 0.00 71 1014.8
20260508080251 9 306 6.4 12.9 0.00 0.18 0.00 72 1014.8
20260508080150 9 294 6.4 12.9 0.00 0.18 0.00 71 1014.8
20260508080052 9 327 6.4 12.9 0.00 0.18 0.00 72 1014.8
20260508075952 9 297 6.4 12.9 0.00 0.18 0.00 72 1014.8
20260508075851 9 306 6.4 11.3 0.00 0.18 0.00 72 1014.8
20260508075745 9 302 6.4 11.3 0.00 0.18 0.00 73 1014.9
20260508075645 9 301 6.4 11.3 0.00 0.18 0.00 73 1014.7
20260508075545 9 300 6.4 11.3 0.00 0.18 0.00 73 1014.7
20260508075444 9 306 6.4 11.3 0.00 0.18 0.00 73 1014.7
20260508075346 9 279 6.4 11.3 0.00 0.18 0.00 73 1014.7
20260508075242 9 298 6.4 11.3 0.00 0.18 0.00 73 1014.6
20260508075144 9 305 6.4 11.3 0.00 0.18 0.00 73 1014.6
20260508075041 9 308 6.4 11.3 0.00 0.18 0.00 73 1014.6
20260508074941 9 310 6.4 11.3 0.00 0.18 0.00 73 1014.6
20260508074842 9 292 6.4 11.3 0.00 0.18 0.00 74 1014.6
20260508074742 9 313 6.4 11.3 0.00 0.18 0.00 74 1014.6
20260508074641 9 312 6.4 11.3 0.00 0.18 0.00 74 1014.6
20260508074540 9 302 6.4 11.3 0.00 0.18 0.00 73 1014.6
20260508074438 9 304 6.4 11.3 0.00 0.18 0.00 74 1014.7
20260508074339 9 302 6.4 11.3 0.00 0.18 0.00 74 1014.7
20260508074238 9 301 6.4 11.3 0.00 0.18 0.00 74 1014.8
20260508074139 9 302 6.4 11.3 0.00 0.18 0.00 74 1014.7
20260508074039 9 306 6.4 11.3 0.00 0.18 0.00 74 1014.7
20260508073938 9 303 6.4 11.3 0.00 0.18 0.00 74 1014.8
20260508073836 9 301 6.4 11.3 0.00 0.18 0.00 74 1014.6
20260508073736 9 304 6.4 11.3 0.00 0.18 0.00 74 1014.6
20260508073633 9 290 6.4 11.3 0.00 0.18 0.00 74 1014.7
20260508073533 9 292 6.4 11.3 0.00 0.18 0.00 75 1014.7
20260508073433 9 298 6.4 11.3 0.00 0.18 0.00 75 1014.7
20260508073333 9 304 6.4 11.3 0.00 0.18 0.00 75 1014.7
20260508073233 9 300 6.4 12.9 0.00 0.18 0.00 75 1014.7
20260508073132 9 295 6.4 12.9 0.00 0.18 0.00 75 1014.6
20260508073034 9 291 6.4 12.9 0.00 0.18 0.00 76 1014.6
20260508072932 9 288 6.4 12.9 0.00 0.18 0.00 75 1014.6
20260508072829 9 301 6.4 12.9 0.00 0.18 0.00 76 1014.6
20260508072729 9 308 6.4 12.9 0.00 0.18 0.00 76 1014.6
20260508072630 9 293 6.4 12.9 0.00 0.18 0.00 76 1014.7
20260508072530 9 301 6.4 12.9 0.00 0.18 0.00 76 1014.6
20260508072428 9 306 6.4 12.9 0.00 0.18 0.00 76 1014.6
20260508072330 9 322 6.4 12.9 0.00 0.18 0.00 76 1014.6
20260508072228 9 304 6.4 11.3 0.00 0.18 0.00 76 1014.6
20260508072128 9 295 6.4 11.3 0.00 0.18 0.00 76 1014.6
20260508072030 9 295 6.4 11.3 0.00 0.18 0.00 76 1014.5
20260508071930 9 303 6.4 11.3 0.00 0.18 0.00 76 1014.6
20260508071825 9 295 6.4 11.3 0.00 0.18 0.00 76 1014.6
20260508071725 9 302 6.4 11.3 0.00 0.18 0.00 76 1014.6
20260508071624 9 312 6.4 11.3 0.00 0.18 0.00 76 1014.6
20260508071525 10 316 6.4 11.3 0.00 0.18 0.00 76 1014.6
20260508071425 10 324 6.4 11.3 0.00 0.18 0.00 77 1014.5
20260508071325 10 300 6.4 11.3 0.00 0.18 0.00 77 1014.6
20260508071225 10 331 6.4 11.3 0.00 0.18 0.00 77 1014.6
20260508071125 10 304 6.4 11.3 0.00 0.18 0.00 77 1014.6
20260508071025 10 321 6.4 11.3 0.00 0.18 0.00 77 1014.6
20260508070924 10 313 6.4 11.3 0.00 0.18 0.00 77 1014.6
20260508070825 10 304 6.4 11.3 0.00 0.18 0.00 77 1014.6
20260508070726 10 298 6.4 11.3 0.00 0.18 0.00 77 1014.6
20260508070626 10 314 6.4 11.3 0.00 0.18 0.00 77 1014.6
20260508070525 10 293 6.4 11.3 0.00 0.18 0.00 77 1014.6
20260508070425 10 312 6.4 11.3 0.00 0.18 0.00 78 1014.6
20260508070325 10 289 6.4 11.3 0.00 0.18 0.00 78 1014.5
20260508070226 10 312 6.4 9.7 0.00 0.18 0.00 78 1014.5
20260508070124 10 286 6.4 11.3 0.00 0.18 0.00 78 1014.5
20260508070022 10 306 6.4 11.3 0.00 0.18 0.00 78 1014.5
20260508065923 10 315 6.4 11.3 0.00 0.18 0.00 78 1014.5
20260508065820 10 307 6.4 11.3 0.00 0.18 0.00 78 1014.5
20260508065720 10 313 6.4 11.3 0.00 0.18 0.00 78 1014.5
20260508065621 10 307 6.4 11.3 0.00 0.18 0.00 78 1014.5
20260508065522 10 304 6.4 11.3 0.00 0.18 0.00 78 1014.5
20260508065422 10 333 6.4 11.3 0.00 0.18 0.00 78 1014.5
20260508065321 10 306 6.4 12.9 0.00 0.18 0.00 78 1014.5
20260508065221 10 298 6.4 12.9 0.00 0.18 0.00 78 1014.4
20260508065121 10 304 8.0 12.9 0.00 0.18 0.00 78 1014.5
20260508065021 10 302 8.0 12.9 0.00 0.18 0.00 78 1014.6
20260508064921 10 317 8.0 12.9 0.00 0.18 0.00 78 1014.5
20260508064821 10 328 8.0 12.9 0.00 0.18 0.00 78 1014.4
20260508064722 10 325 8.0 12.9 0.00 0.18 0.00 78 1014.5
20260508064622 10 315 8.0 12.9 0.00 0.18 0.00 78 1014.5
20260508064521 10 332 8.0 12.9 0.00 0.18 0.00 78 1014.5
20260508064420 10 336 8.0 12.9 0.00 0.18 0.00 78 1014.4
20260508064319 10 312 8.0 12.9 0.00 0.18 0.00 78 1014.5
20260508064220 10 302 8.0 12.9 0.00 0.18 0.00 78 1014.4
20260508064119 10 327 8.0 12.9 0.00 0.18 0.00 78 1014.4
20260508064020 10 312 8.0 12.9 0.00 0.18 0.00 78 1014.4
20260508063919 10 310 8.0 12.9 0.00 0.18 0.00 78 1014.3
20260508063818 10 325 8.0 12.9 0.00 0.18 0.00 78 1014.3
20260508063719 10 307 8.0 12.9 0.00 0.18 0.00 78 1014.3
20260508063620 10 325 8.0 12.9 0.00 0.18 0.00 78 1014.3
20260508063519 10 299 8.0 12.9 0.00 0.18 0.00 78 1014.4
20260508063418 10 311 8.0 12.9 0.00 0.18 0.00 78 1014.3
20260508063320 10 323 8.0 12.9 0.00 0.18 0.00 78 1014.4
20260508063214 10 313 8.0 12.9 0.00 0.18 0.00 77 1014.4
20260508063114 10 314 6.4 12.9 0.00 0.18 0.00 77 1014.4
20260508063013 10 317 6.4 12.9 0.00 0.18 0.00 78 1014.4
20260508062912 10 309 6.4 12.9 0.00 0.18 0.00 77 1014.4
20260508062815 10 300 6.4 12.9 0.00 0.18 0.00 77 1014.3
20260508062708 10 298 6.4 12.9 0.00 0.18 0.00 77 1014.4
20260508062606 10 304 8.0 12.9 0.00 0.18 0.00 77 1014.3
20260508062508 10 313 8.0 14.5 0.00 0.18 0.00 77 1014.4
20260508062407 10 339 8.0 14.5 0.00 0.18 0.00 77 1014.4
20260508062307 10 305 8.0 14.5 0.00 0.18 0.00 77 1014.5
20260508062201 10 320 8.0 14.5 0.00 0.18 0.00 77 1014.4
20260508062100 10 302 8.0 14.5 0.00 0.18 0.00 76 1014.3
20260508062001 10 313 8.0 14.5 0.00 0.18 0.00 76 1014.3
20260508061901 10 316 8.0 14.5 0.00 0.18 0.00 76 1014.4
20260508061800 10 313 8.0 14.5 0.00 0.18 0.00 76 1014.4
20260508061700 10 313 8.0 14.5 0.00 0.18 0.00 76 1014.4
20260508061600 10 310 9.7 14.5 0.00 0.18 0.00 76 1014.3
20260508061501 10 319 9.7 17.7 0.00 0.18 0.00 76 1014.3
20260508061400 10 297 9.7 17.7 0.00 0.18 0.00 75 1014.4
20260508061301 10 325 9.7 17.7 0.00 0.18 0.00 75 1014.2
20260508061200 10 323 9.7 17.7 0.00 0.18 0.00 75 1014.4
20260508061100 10 322 11.3 17.7 0.00 0.18 0.00 75 1014.4
20260508061001 10 335 11.3 17.7 0.00 0.18 0.00 75 1014.5
20260508060900 10 328 11.3 17.7 0.00 0.18 0.00 75 1014.4
20260508060801 10 317 11.3 17.7 0.00 0.18 0.00 75 1014.5
20260508060702 10 293 11.3 17.7 0.00 0.18 0.00 75 1014.5
20260508060602 10 311 11.3 17.7 0.00 0.18 0.00 75 1014.4
20260508060454 10 289 12.9 17.7 0.00 0.18 0.00 75 1014.4
20260508060356 10 298 12.9 19.3 0.00 0.18 0.00 75 1014.3
20260508060255 10 311 12.9 19.3 0.00 0.18 0.00 75 1014.4
20260508060156 10 313 12.9 19.3 0.00 0.18 0.00 75 1014.4
20260508060053 10 302 12.9 19.3 0.00 0.18 0.00 75 1014.4
20260508055953 10 300 12.9 19.3 0.00 0.18 0.00 75 1014.4
20260508055852 10 301 12.9 19.3 0.00 0.18 0.00 75 1014.3
20260508055753 10 303 12.9 19.3 0.00 0.18 0.00 75 1014.3
20260508055652 10 299 11.3 19.3 0.00 0.18 0.00 75 1014.3
20260508055553 10 309 11.3 19.3 0.00 0.18 0.00 75 1014.2
20260508055453 10 316 11.3 19.3 0.00 0.18 0.00 75 1014.3
20260508055352 10 303 11.3 17.7 0.00 0.18 0.00 75 1014.3
20260508055253 10 302 9.7 17.7 0.00 0.18 0.00 75 1014.3
20260508055152 10 310 9.7 17.7 0.00 0.18 0.00 75 1014.4
20260508055053 10 293 9.7 17.7 0.00 0.18 0.00 75 1014.3
20260508054954 10 315 9.7 17.7 0.00 0.18 0.00 75 1014.3
20260508054854 10 306 9.7 16.1 0.00 0.18 0.00 75 1014.4
20260508054744 10 313 9.7 16.1 0.00 0.18 0.00 75 1014.5
20260508054645 10 302 9.7 16.1 0.00 0.18 0.00 75 1014.5
20260508054544 10 313 9.7 16.1 0.00 0.18 0.00 75 1014.5
20260508054445 10 309 9.7 14.5 0.00 0.18 0.00 75 1014.4
20260508054245 11 315 11.3 16.1 0.00 0.18 0.00 75 1014.4
20260508054145 11 285 11.3 19.3 0.00 0.18 0.00 75 1014.5
20260508054045 11 292 11.3 19.3 0.00 0.18 0.00 75 1014.3
20260508053951 11 306 11.3 19.3 0.00 0.18 0.00 75 1014.3
20260508053844 11 307 12.9 19.3 0.00 0.18 0.00 75 1014.2
20260508053746 11 306 12.9 20.9 0.00 0.18 0.00 75 1014.2
20260508053642 11 309 12.9 20.9 0.00 0.18 0.00 75 1014.3
20260508053543 11 325 12.9 20.9 0.00 0.18 0.00 75 1014.2
20260508053444 11 307 12.9 20.9 0.00 0.18 0.00 75 1014.2
20260508053343 11 279 12.9 20.9 0.00 0.18 0.00 75 1014.2
20260508053243 11 303 14.5 20.9 0.00 0.18 0.00 75 1014.2
20260508053143 11 305 14.5 20.9 0.00 0.18 0.00 75 1014.2
20260508053038 11 290 14.5 20.9 0.00 0.18 0.00 75 1014.2
20260508052938 11 324 14.5 20.9 0.00 0.18 0.00 74 1014.2
20260508052838 11 304 14.5 25.7 0.00 0.18 0.00 75 1014.2
20260508052736 11 314 14.5 25.7 0.00 0.18 0.00 75 1014.2
20260508052638 11 305 14.5 25.7 0.00 0.18 0.00 75 1014.2
20260508052532 11 292 14.5 25.7 0.00 0.18 0.00 75 1014.2
20260508052432 11 302 16.1 25.7 0.00 0.18 0.00 75 1014.2
20260508052331 11 295 16.1 25.7 0.00 0.18 0.00 75 1014.3
20260508052232 11 294 16.1 25.7 0.00 0.18 0.00 75 1014.2
20260508052131 11 292 16.1 25.7 0.00 0.18 0.00 75 1014.1
20260508052027 11 310 16.1 25.7 0.00 0.20 0.00 75 1014.2
20260508051927 11 300 16.1 25.7 0.00 0.20 0.00 76 1014.1
20260508051826 11 312 14.5 20.9 0.00 0.20 0.00 76 1014.1
20260508051726 11 304 14.5 20.9 0.00 0.20 0.00 76 1014.1
20260508051627 11 328 14.5 20.9 0.00 0.20 0.00 76 1014.1
20260508051526 11 281 14.5 20.9 0.00 0.20 0.00 76 1014.0
20260508051427 11 306 14.5 20.9 0.00 0.20 0.00 76 1014.0
20260508051326 11 312 14.5 20.9 0.00 0.20 0.00 76 1014.0
20260508051225 11 342 14.5 20.9 0.00 0.20 0.00 76 1014.1
20260508051124 10 286 14.5 20.9 0.00 0.20 0.00 76 1014.0
20260508051026 10 297 12.9 20.9 0.00 0.20 0.00 76 1014.0
20260508050925 11 306 12.9 20.9 0.00 0.20 0.00 76 1014.0
20260508050824 11 319 14.5 20.9 0.00 0.20 0.00 76 1014.0
20260508050724 11 319 14.5 20.9 0.00 0.20 0.00 76 1014.0
20260508050624 11 288 14.5 20.9 0.00 0.20 0.00 76 1014.0
20260508050526 11 324 14.5 22.5 0.00 0.20 0.00 76 1014.0
20260508050426 11 296 14.5 22.5 0.00 0.20 0.00 76 1014.0
20260508050325 11 318 14.5 22.5 0.00 0.20 0.00 76 1013.9
20260508050225 11 337 12.9 22.5 0.00 0.20 0.00 76 1014.1
20260508050120 11 325 12.9 22.5 0.00 0.20 0.00 76 1014.0
20260508050021 11 327 12.9 22.5 0.00 0.20 0.00 76 1014.1
20260508045922 11 300 12.9 22.5 0.00 0.20 0.00 76 1014.1
20260508045819 11 325 12.9 22.5 0.00 0.20 0.00 76 1014.1
20260508045718 11 350 12.9 22.5 0.00 0.20 0.00 76 1014.1
20260508045620 11 318 12.9 22.5 0.00 0.20 0.00 76 1014.1
20260508045518 11 292 11.3 17.7 0.00 0.20 0.00 76 1014.1
20260508045418 11 317 11.3 17.7 0.00 0.20 0.00 76 1014.1
20260508045319 11 316 11.3 17.7 0.00 0.20 0.00 76 1014.1
20260508045218 11 306 9.7 17.7 0.00 0.20 0.00 76 1014.1
20260508045120 11 332 9.7 17.7 0.00 0.20 0.00 76 1014.0
20260508045019 11 325 9.7 17.7 0.00 0.20 0.00 76 1014.1
20260508044918 11 332 9.7 17.7 0.00 0.20 0.00 76 1014.0
20260508044818 11 350 9.7 17.7 0.00 0.20 0.00 75 1014.0
20260508044719 11 324 8.0 17.7 0.00 0.20 0.00 75 1014.1
20260508044618 11 313 8.0 17.7 0.00 0.20 0.00 75 1014.1
20260508044519 11 316 8.0 17.7 0.00 0.20 0.00 75 1014.0
20260508044418 11 321 8.0 17.7 0.00 0.20 0.00 75 1014.1
20260508044319 11 355 8.0 17.7 0.00 0.20 0.00 75 1014.0
20260508044215 11 348 9.7 17.7 0.00 0.20 0.00 75 1014.0
20260508044116 11 312 8.0 17.7 0.00 0.20 0.00 75 1014.0
20260508044015 11 315 8.0 17.7 0.00 0.20 0.00 75 1014.1
20260508043915 11 313 8.0 17.7 0.00 0.20 0.00 75 1014.0
20260508043816 11 325 8.0 17.7 0.00 0.20 0.00 75 1014.0
20260508043714 11 315 8.0 17.7 0.00 0.20 0.00 75 1014.0
20260508043616 11 311 8.0 14.5 0.00 0.20 0.00 75 1014.0
20260508043515 11 340 6.4 14.5 0.00 0.20 0.00 75 1014.1
20260508043414 11 313 6.4 12.9 0.00 0.20 0.00 75 1014.1
20260508043315 11 312 6.4 12.9 0.00 0.20 0.00 75 1014.1
20260508043215 11 324 4.8 12.9 0.00 0.20 0.00 75 1014.2
20260508043114 11 318 4.8 9.7 0.00 0.20 0.00 75 1014.2
20260508043015 11 330 4.8 9.7 0.00 0.20 0.00 75 1014.1
20260508042914 11 323 4.8 9.7 0.00 0.20 0.00 74 1014.2
20260508042814 11 331 4.8 9.7 0.00 0.20 0.00 74 1014.1
20260508042716 11 320 4.8 9.7 0.00 0.23 0.00 74 1014.2
20260508042615 11 319 6.4 11.3 0.00 0.23 0.00 74 1014.2
20260508042515 11 314 6.4 11.3 0.00 0.23 0.00 74 1014.2
20260508042414 11 312 6.4 11.3 0.00 0.23 0.00 74 1014.3
20260508042316 11 310 6.4 11.3 0.00 0.23 0.00 74 1014.1
20260508042215 11 323 6.4 11.3 0.00 0.23 0.00 74 1014.1
20260508042114 11 280 6.4 11.3 0.00 0.23 0.00 74 1014.2
20260508042015 11 290 6.4 11.3 0.00 0.23 0.00 75 1014.1
20260508041914 11 288 6.4 11.3 0.00 0.23 0.00 74 1014.1
20260508041816 11 298 6.4 11.3 0.00 0.23 0.00 74 1014.1
20260508041716 11 303 6.4 11.3 0.00 0.23 0.00 75 1014.1
20260508041616 11 309 6.4 11.3 0.00 0.23 0.00 75 1014.1
20260508041514 11 302 6.4 11.3 0.00 0.23 0.00 75 1014.1
20260508041415 11 298 6.4 11.3 0.00 0.23 0.00 75 1014.0
20260508041314 11 292 6.4 11.3 0.00 0.23 0.00 75 1014.1
20260508041215 11 301 6.4 11.3 0.00 0.23 0.00 75 1014.1
20260508041114 11 326 6.4 11.3 0.00 0.23 0.00 75 1014.1
20260508041015 11 318 4.8 11.3 0.00 0.23 0.00 74 1014.2
20260508040912 11 312 4.8 11.3 0.00 0.23 0.00 74 1014.1
20260508040810 11 309 4.8 11.3 0.00 0.23 0.00 74 1014.0
20260508040712 11 281 6.4 12.9 0.00 0.23 0.00 74 1014.0
20260508040610 11 296 6.4 12.9 0.00 0.23 0.00 74 1014.0
20260508040510 11 295 6.4 12.9 0.00 0.23 0.00 74 1014.0
20260508040411 11 315 6.4 12.9 0.00 0.23 0.00 75 1013.9
20260508040310 11 298 6.4 14.5 0.00 0.23 0.00 75 1014.1
20260508040211 11 299 6.4 14.5 0.00 0.23 0.00 75 1013.9
20260508040110 11 300 8.0 14.5 0.00 0.23 0.00 74 1014.0
20260508040010 11 301 8.0 14.5 0.00 0.23 0.00 74 1014.0
20260508035910 11 304 8.0 14.5 0.00 0.23 0.23 74 1014.0
20260508035808 11 302 8.0 14.5 0.00 0.23 0.23 74 1013.9
20260508035710 11 327 8.0 14.5 0.00 0.23 0.23 74 1013.9
20260508035608 11 306 8.0 14.5 0.00 0.23 0.23 74 1013.9
20260508035510 11 298 8.0 14.5 0.00 0.23 0.23 74 1013.9
20260508035409 11 293 8.0 14.5 0.00 0.23 0.23 74 1013.9
20260508035308 11 321 8.0 12.9 0.00 0.23 0.23 74 1013.9
20260508035209 11 318 8.0 12.9 0.00 0.23 0.23 74 1013.9
20260508035108 11 288 6.4 12.9 0.00 0.23 0.23 74 1014.0
20260508035010 11 311 6.4 12.9 0.00 0.23 0.23 74 1013.8
20260508034910 11 304 6.4 12.9 0.00 0.23 0.23 74 1013.9
20260508034808 11 277 6.4 11.3 0.00 0.23 0.23 74 1013.8
20260508034710 11 295 4.8 11.3 0.00 0.23 0.23 74 1013.9
20260508034609 11 311 4.8 11.3 0.00 0.23 0.23 74 1013.8
20260508034502 11 302 4.8 9.7 0.00 0.23 0.23 74 1013.9
20260508034403 11 301 4.8 8.0 0.00 0.23 0.23 74 1013.9
20260508034302 11 294 4.8 8.0 0.00 0.23 0.23 74 1013.8
20260508034203 11 318 4.8 8.0 0.00 0.23 0.23 75 1013.9
20260508034104 11 292 4.8 12.9 0.00 0.23 0.23 76 1013.9
20260508033957 11 291 4.8 12.9 0.00 0.23 0.23 76 1013.8
20260508033856 11 291 4.8 12.9 0.00 0.23 0.23 74 1013.9
20260508033757 11 291 4.8 12.9 0.00 0.23 0.23 74 1013.8
20260508033657 11 290 4.8 12.9 0.00 0.23 0.23 74 1013.8
20260508033558 11 296 4.8 16.1 0.00 0.23 0.23 74 1013.9
20260508033453 11 296 6.4 16.1 0.00 0.23 0.23 74 1013.9
20260508033352 11 297 6.4 16.1 0.00 0.23 0.23 74 1013.9
20260508033252 11 311 6.4 16.1 0.00 0.23 0.23 74 1013.8
20260508033149 11 313 6.4 16.1 0.00 0.23 0.23 74 1013.8
20260508033048 11 317 4.8 16.1 0.00 0.23 0.23 74 1013.8
20260508032948 11 300 4.8 16.1 0.00 0.23 0.23 74 1013.8
20260508032850 11 311 4.8 16.1 0.00 0.23 0.23 74 1013.7
20260508032746 11 311 4.8 16.1 0.00 0.23 0.23 74 1013.8
20260508032647 11 309 4.8 16.1 0.00 0.23 0.23 74 1013.9
20260508032547 11 292 4.8 9.7 0.00 0.23 0.23 74 1013.9
20260508032445 11 292 4.8 9.7 0.00 0.23 0.23 74 1013.8
20260508032343 11 267 4.8 11.3 0.00 0.23 0.23 74 1013.8
20260508032244 11 292 4.8 11.3 0.00 0.23 0.23 74 1013.8
20260508032142 11 291 4.8 11.3 0.00 0.23 0.23 74 1013.8
20260508032043 11 301 4.8 12.9 0.00 0.23 0.23 74 1013.8
20260508031944 11 292 6.4 12.9 0.00 0.23 0.23 74 1013.8
20260508031841 11 292 6.4 12.9 0.00 0.23 0.23 75 1013.8
20260508031741 11 292 6.4 12.9 0.00 0.23 0.23 74 1013.8
20260508031641 11 292 6.4 12.9 0.00 0.23 0.23 73 1013.8
20260508031541 11 292 8.0 12.9 0.00 0.23 0.23 73 1013.8
20260508031442 11 282 8.0 12.9 0.00 0.23 0.23 73 1013.9
20260508031341 11 289 8.0 12.9 0.00 0.23 0.23 73 1013.9
20260508031234 11 289 8.0 12.9 0.00 0.23 0.23 73 1013.9
20260508031135 11 308 8.0 12.9 0.00 0.23 0.23 73 1013.9
20260508031035 11 313 6.4 11.3 0.00 0.23 0.23 73 1013.8
20260508030935 11 294 8.0 11.3 0.00 0.23 0.23 73 1013.8
20260508030835 11 307 8.0 11.3 0.00 0.23 0.23 73 1013.8
20260508030729 11 306 8.0 12.9 0.00 0.23 0.23 73 1013.9
20260508030629 11 299 8.0 16.1 0.00 0.23 0.23 73 1013.8
20260508030529 11 298 8.0 16.1 0.00 0.23 0.23 73 1013.8
20260508030429 11 297 8.0 16.1 0.00 0.23 0.23 73 1013.8
20260508030330 11 296 8.0 16.1 0.00 0.23 0.23 73 1013.8
20260508030226 11 298 8.0 16.1 0.00 0.23 0.23 73 1013.7
20260508030124 11 329 9.7 16.1 0.00 0.23 0.23 73 1013.8
20260508030024 11 298 9.7 16.1 0.00 0.23 0.23 73 1013.7
20260508025924 11 286 9.7 16.1 0.00 0.23 0.23 73 1013.8
20260508025825 11 311 11.3 16.1 0.00 0.23 0.23 72 1013.7
20260508025724 11 311 11.3 16.1 0.00 0.23 0.23 73 1013.5
20260508025624 11 299 11.3 16.1 0.00 0.23 0.23 73 1013.5
20260508025525 11 313 11.3 16.1 0.00 0.23 0.23 73 1013.5
20260508025426 11 292 11.3 17.7 0.00 0.23 0.23 72 1013.5
20260508025323 11 320 11.3 17.7 0.00 0.23 0.23 72 1013.4
20260508025224 11 296 12.9 17.7 0.00 0.23 0.23 72 1013.5
20260508025121 11 315 12.9 17.7 0.00 0.23 0.23 72 1013.5
20260508025020 11 300 12.9 17.7 0.00 0.23 0.23 72 1013.4
20260508024920 11 304 12.9 19.3 0.00 0.23 0.23 73 1013.4
20260508024821 11 308 12.9 19.3 0.00 0.23 0.23 73 1013.4
20260508024721 11 303 12.9 19.3 0.00 0.23 0.23 72 1013.4
20260508024621 11 283 11.3 19.3 0.00 0.23 0.23 72 1013.4
20260508024514 11 319 11.3 19.3 0.00 0.23 0.23 72 1013.3
20260508024414 11 315 12.9 19.3 0.00 0.23 0.23 72 1013.3
20260508024315 11 269 12.9 19.3 0.00 0.23 0.23 72 1013.3
20260508024215 11 317 12.9 19.3 0.00 0.23 0.23 73 1013.3
20260508024114 11 284 12.9 20.9 0.00 0.23 0.23 72 1013.3
20260508024014 11 315 12.9 20.9 0.00 0.23 0.23 73 1013.3
20260508023915 11 293 12.9 20.9 0.00 0.25 0.23 72 1013.3
20260508023814 11 305 12.9 20.9 0.00 0.25 0.23 72 1013.3
20260508023716 11 321 12.9 20.9 0.00 0.25 0.23 73 1013.3
20260508023616 11 321 12.9 20.9 0.00 0.25 0.23 73 1013.2
20260508023515 11 302 12.9 20.9 0.00 0.25 0.23 72 1013.3
20260508023412 11 309 12.9 20.9 0.00 0.25 0.23 73 1013.3
20260508023312 11 298 12.9 20.9 0.00 0.25 0.23 73 1013.2
20260508023212 11 317 11.3 20.9 0.00 0.28 0.23 73 1013.2
20260508023112 11 287 11.3 17.7 0.00 0.28 0.23 73 1013.3
20260508023014 11 290 11.3 17.7 0.00 0.28 0.23 73 1013.2
20260508022912 11 304 11.3 17.7 0.00 0.28 0.23 73 1013.2
20260508022810 11 289 11.3 17.7 0.00 0.28 0.23 73 1013.2
20260508022708 11 290 11.3 17.7 0.00 0.28 0.23 73 1013.2
20260508022609 11 297 11.3 17.7 0.00 0.28 0.23 73 1013.2
20260508022508 11 294 11.3 17.7 0.00 0.28 0.23 73 1013.3
20260508022408 11 299 11.3 17.7 0.00 0.28 0.23 73 1013.2
20260508022308 11 298 11.3 17.7 0.00 0.28 0.23 73 1013.2
20260508022208 11 306 11.3 17.7 0.00 0.28 0.23 73 1013.3
20260508022109 11 318 11.3 17.7 0.00 0.28 0.23 73 1013.3
20260508022010 11 325 11.3 17.7 0.00 0.28 0.23 73 1013.2
20260508021909 11 290 11.3 17.7 0.00 0.28 0.23 73 1013.2
20260508021808 11 307 11.3 17.7 0.00 0.28 0.23 73 1013.2
20260508021708 11 297 11.3 22.5 0.00 0.30 0.23 73 1013.2
20260508021609 11 304 11.3 22.5 0.00 0.30 0.23 73 1013.1
20260508021509 11 290 11.3 22.5 0.00 0.30 0.23 73 1013.1
20260508021409 11 319 12.9 22.5 0.00 0.30 0.23 73 1013.1
20260508021310 11 279 12.9 22.5 0.00 0.30 0.23 73 1013.0
20260508021208 11 297 12.9 22.5 0.00 0.30 0.23 73 1013.0
20260508021108 11 304 12.9 22.5 0.00 0.30 0.23 73 1013.0
20260508021009 11 288 12.9 22.5 0.00 0.30 0.23 73 1013.0
20260508020910 11 305 11.3 22.5 0.00 0.30 0.23 73 1012.9
20260508020808 11 293 11.3 22.5 0.00 0.30 0.23 73 1013.0
20260508020709 11 322 11.3 19.3 0.00 0.30 0.23 73 1012.9
20260508020608 11 334 11.3 19.3 0.00 0.33 0.23 73 1012.8
20260508020508 11 286 11.3 20.9 0.00 0.33 0.23 73 1012.8
20260508020409 11 327 12.9 20.9 0.00 0.33 0.23 73 1012.8
20260508020312 11 306 12.9 20.9 0.00 0.33 0.23 73 1012.8
20260508020208 11 294 12.9 20.9 0.00 0.33 0.23 73 1012.8
20260508020109 11 308 12.9 20.9 0.00 0.33 0.23 73 1012.8
20260508020009 11 298 12.9 20.9 0.00 0.33 0.23 73 1012.8
20260508015908 11 311 12.9 20.9 0.00 0.33 0.23 73 1012.8
20260508015809 11 317 11.3 20.9 0.00 0.33 0.23 73 1012.8
20260508015709 11 298 11.3 20.9 0.00 0.33 0.23 73 1012.8
20260508015610 11 329 9.7 20.9 0.00 0.33 0.23 73 1012.9
20260508015505 11 291 9.7 17.7 0.00 0.33 0.23 73 1012.8
20260508015406 11 292 9.7 17.7 0.00 0.33 0.23 72 1012.9
20260508015307 11 288 9.7 17.7 0.00 0.33 0.23 73 1012.8
20260508015205 11 309 9.7 17.7 0.00 0.33 0.23 73 1012.9
20260508015104 11 298 9.7 19.3 0.00 0.33 0.23 73 1012.8
20260508015004 11 329 9.7 20.9 0.00 0.33 0.23 73 1012.9
20260508014904 11 307 9.7 20.9 0.00 0.33 0.23 72 1012.7
20260508014806 11 331 11.3 20.9 0.00 0.33 0.23 73 1012.8
20260508014705 11 306 11.3 20.9 0.00 0.33 0.23 72 1012.7
20260508014604 11 300 11.3 20.9 0.00 0.36 0.23 72 1012.7
20260508014505 11 319 11.3 20.9 0.00 0.36 0.23 72 1012.5
20260508014405 11 284 11.3 20.9 0.00 0.36 0.23 72 1012.6
20260508014304 11 313 11.3 20.9 0.00 0.36 0.23 72 1012.5
20260508014206 11 276 11.3 20.9 0.00 0.36 0.23 72 1012.5
20260508014105 11 313 11.3 20.9 0.00 0.36 0.23 72 1012.5
20260508014005 11 350 11.3 20.9 0.00 0.36 0.23 72 1012.5
20260508013905 11 332 11.3 20.9 0.00 0.36 0.23 72 1012.5
20260508013805 11 311 9.7 19.3 0.00 0.36 0.23 72 1012.4
20260508013704 11 304 9.7 17.7 0.00 0.36 0.23 72 1012.4
20260508013604 11 322 9.7 17.7 0.00 0.36 0.23 72 1012.5
20260508013505 11 300 9.7 16.1 0.00 0.36 0.23 72 1012.4
20260508013406 11 325 9.7 16.1 0.00 0.36 0.23 72 1012.4
20260508013304 11 312 9.7 16.1 0.00 0.36 0.23 72 1012.3
20260508013205 11 311 11.3 17.7 0.00 0.36 0.23 72 1012.3
20260508013105 11 301 11.3 17.7 0.00 0.36 0.23 72 1012.3
20260508013005 11 298 11.3 17.7 0.00 0.36 0.23 72 1012.3
20260508012858 11 304 11.3 17.7 0.00 0.36 0.23 72 1012.2
20260508012758 11 324 11.3 17.7 0.00 0.36 0.23 72 1012.3
20260508012657 11 334 11.3 17.7 0.00 0.36 0.23 72 1012.2
20260508012556 11 308 11.3 17.7 0.00 0.36 0.23 72 1012.3
20260508012456 11 281 11.3 17.7 0.00 0.36 0.23 72 1012.2
20260508012356 11 305 12.9 17.7 0.00 0.36 0.23 72 1012.2
20260508012256 11 311 12.9 20.9 0.00 0.36 0.23 72 1012.1
20260508012157 11 313 11.3 20.9 0.00 0.36 0.23 72 1012.1
20260508012057 11 321 11.3 20.9 0.00 0.36 0.23 72 1012.1
20260508011957 11 309 11.3 20.9 0.00 0.36 0.23 72 1012.2
20260508011857 11 313 11.3 20.9 0.00 0.36 0.23 72 1012.2
20260508011756 11 346 11.3 20.9 0.00 0.36 0.23 72 1012.1
20260508011658 11 319 11.3 20.9 0.00 0.36 0.23 72 1012.1
20260508011557 11 315 11.3 20.9 0.00 0.36 0.23 73 1012.2
20260508011456 11 313 11.3 20.9 0.00 0.36 0.23 72 1012.2
20260508011356 11 331 9.7 20.9 0.00 0.36 0.23 72 1012.1
20260508011256 11 283 9.7 17.7 0.00 0.36 0.23 72 1012.1
20260508011156 11 314 9.7 16.1 0.00 0.36 0.23 72 1012.0
20260508011056 11 314 9.7 16.1 0.00 0.36 0.23 72 1012.1
20260508010956 11 296 9.7 16.1 0.00 0.36 0.23 72 1012.1
20260508010856 11 291 9.7 16.1 0.00 0.36 0.23 73 1012.0
20260508010756 11 305 9.7 16.1 0.00 0.36 0.23 72 1012.1
20260508010656 11 289 8.0 16.1 0.00 0.36 0.23 73 1012.1
20260508010557 11 292 8.0 16.1 0.00 0.36 0.23 72 1012.0
20260508010457 11 298 8.0 16.1 0.00 0.36 0.23 72 1012.0
20260508010357 11 298 9.7 16.1 0.00 0.36 0.23 72 1012.0
20260508010257 11 308 9.7 16.1 0.00 0.36 0.23 72 1011.8
20260508010156 11 286 9.7 16.1 0.00 0.36 0.23 72 1011.8
20260508010056 11 299 9.7 16.1 0.00 0.38 0.23 73 1012.0
20260508005958 11 314 9.7 16.1 0.00 0.38 0.23 73 1011.8
20260508005857 11 288 9.7 16.1 0.00 0.38 0.23 72 1012.0
20260508005758 11 318 9.7 16.1 0.00 0.38 0.23 72 1011.8
20260508005657 11 322 11.3 16.1 0.00 0.38 0.23 72 1011.8
20260508005552 11 314 11.3 17.7 0.00 0.38 0.23 72 1012.0
20260508005453 11 302 12.9 17.7 0.00 0.38 0.23 72 1012.0
20260508005353 11 325 12.9 17.7 0.00 0.38 0.23 72 1012.0
20260508005252 12 342 12.9 20.9 0.00 0.38 0.23 72 1011.8
20260508005152 12 300 12.9 20.9 0.00 0.38 0.23 72 1011.8
20260508005052 12 300 14.5 20.9 0.00 0.38 0.23 72 1011.8
20260508004954 12 319 14.5 20.9 0.00 0.38 0.23 72 1011.7
20260508004854 12 315 14.5 20.9 0.00 0.38 0.23 72 1011.8
20260508004752 12 299 16.1 25.7 0.00 0.38 0.23 72 1011.8
20260508004652 12 325 16.1 25.7 0.00 0.38 0.23 72 1011.7
20260508004552 12 309 16.1 25.7 0.00 0.38 0.23 72 1011.7
20260508004452 12 319 16.1 25.7 0.00 0.38 0.23 72 1011.6
20260508004353 12 329 16.1 25.7 0.00 0.38 0.23 72 1011.7
20260508004253 12 332 16.1 25.7 0.00 0.38 0.23 72 1011.6
20260508004152 12 311 16.1 25.7 0.00 0.38 0.23 72 1011.6
20260508004054 12 333 14.5 25.7 0.00 0.38 0.23 72 1011.6
20260508003952 12 292 14.5 25.7 0.00 0.38 0.23 72 1011.6
20260508003852 12 314 14.5 25.7 0.00 0.41 0.23 72 1011.6
20260508003752 12 296 14.5 24.1 0.00 0.41 0.23 72 1011.7
20260508003653 12 288 14.5 24.1 0.00 0.41 0.23 72 1011.7
20260508003553 12 333 14.5 24.1 0.00 0.41 0.23 72 1011.7
20260508003452 12 295 14.5 24.1 0.00 0.41 0.23 72 1011.8
20260508003352 12 294 14.5 24.1 0.00 0.41 0.23 72 1011.7
20260508003252 12 297 14.5 22.5 0.00 0.41 0.23 72 1011.7
20260508003154 12 303 16.1 22.5 0.00 0.41 0.23 72 1011.6
20260508003053 12 300 16.1 22.5 0.00 0.41 0.23 72 1011.6
20260508002952 12 294 16.1 25.7 0.00 0.41 0.23 72 1011.7
20260508002852 12 315 17.7 25.7 0.00 0.41 0.23 71 1011.7
20260508002751 12 313 17.7 25.7 0.00 0.41 0.23 72 1011.7
20260508002653 12 288 17.7 25.7 0.00 0.41 0.23 71 1011.6
20260508002553 12 355 17.7 27.4 0.00 0.41 0.23 72 1011.7
20260508002453 12 320 17.7 27.4 0.00 0.41 0.23 72 1011.7
20260508002353 12 336 17.7 27.4 0.00 0.41 0.23 72 1011.6
20260508002248 12 300 17.7 27.4 0.00 0.43 0.23 71 1011.7
20260508002148 12 312 17.7 27.4 0.00 0.43 0.23 71 1011.7
20260508002049 12 300 17.7 27.4 0.00 0.43 0.23 71 1011.6
20260508001948 12 329 17.7 27.4 0.00 0.43 0.23 71 1011.6
20260508001848 12 304 17.7 29.0 0.00 0.43 0.23 71 1011.6
20260508001749 12 280 17.7 29.0 0.00 0.43 0.23 71 1011.6
20260508001646 12 323 16.1 29.0 0.00 0.43 0.23 72 1011.6
20260508001546 12 312 16.1 29.0 0.00 0.43 0.23 73 1011.6
20260508001446 12 317 16.1 29.0 0.00 0.46 0.23 73 1011.7
20260508001348 12 319 16.1 29.0 0.00 0.46 0.23 73 1011.7
20260508001246 12 313 16.1 29.0 0.00 0.46 0.23 73 1011.8
20260508001148 12 302 16.1 29.0 0.00 0.46 0.23 73 1011.8
20260508001043 12 335 16.1 29.0 0.00 0.46 0.23 73 1011.7
20260508000943 12 320 14.5 29.0 0.00 0.46 0.23 73 1011.7
20260508000842 12 300 14.5 25.7 0.00 0.46 0.23 74 1011.7
20260508000742 12 311 14.5 25.7 0.00 0.46 0.23 74 1011.7
20260508000642 12 326 14.5 25.7 0.00 0.46 0.23 74 1011.7
20260508000544 12 296 14.5 25.7 0.00 0.46 0.23 75 1011.7
20260508000442 12 317 14.5 25.7 0.00 0.46 0.23 74 1011.8
20260508000342 12 318 14.5 25.7 0.00 0.46 0.23 74 1011.7
20260508000242 12 292 14.5 24.1 0.00 0.46 0.23 76 1011.8
20260508000140 12 302 14.5 22.5 0.00 0.48 0.23 76 1012.0
20260508000039 12 298 14.5 22.5 0.00 0.48 0.23 76 1011.8
20260507235936 12 318 14.5 22.5 0.00 0.48 0.23 76 1011.8
20260507235836 12 319 14.5 22.5 0.00 0.48 0.23 76 1011.8
20260507235736 12 282 14.5 22.5 0.00 0.48 0.23 76 1011.8
20260507235635 12 306 14.5 22.5 0.00 0.48 0.23 76 1011.7
20260507235537 13 296 14.5 22.5 0.00 0.48 0.23 76 1011.7
20260507235434 13 296 14.5 22.5 0.00 0.48 0.23 76 1011.7
20260507235330 13 324 12.9 20.9 0.00 0.48 0.23 77 1011.6
20260507235230 13 315 12.9 20.9 0.00 0.48 0.23 78 1011.6
20260507235131 13 314 12.9 20.9 0.00 0.48 0.23 78 1011.6
20260507235029 13 355 12.9 20.9 0.00 0.48 0.23 78 1011.7
20260507234930 13 282 12.9 20.9 0.00 0.48 0.23 78 1011.6
20260507234830 13 328 12.9 20.9 0.00 0.48 0.23 78 1011.6
20260507234732 13 320 12.9 20.9 0.00 0.48 0.23 78 1011.7
20260507234630 13 297 11.3 20.9 0.00 0.48 0.23 78 1011.7
20260507234530 13 316 11.3 19.3 0.00 0.48 0.23 79 1011.6
20260507234428 13 309 11.3 19.3 0.00 0.48 0.23 79 1011.6
20260507234329 13 292 12.9 19.3 0.00 0.48 0.23 79 1011.6
20260507234228 13 309 12.9 20.9 0.00 0.48 0.23 79 1011.6
20260507234128 13 269 12.9 20.9 0.00 0.48 0.23 79 1011.6
20260507234030 13 291 12.9 20.9 0.00 0.51 0.23 79 1011.6
20260507233930 13 286 12.9 22.5 0.00 0.51 0.23 79 1011.6
20260507233828 13 327 14.5 22.5 0.00 0.51 0.23 79 1011.6
20260507233728 13 317 14.5 22.5 0.00 0.51 0.23 78 1011.6
20260507233623 13 325 14.5 22.5 0.00 0.51 0.23 78 1011.6
20260507233524 13 306 14.5 22.5 0.00 0.51 0.23 78 1011.6
20260507233424 13 314 16.1 25.7 0.00 0.51 0.23 78 1011.5
20260507233323 13 312 16.1 25.7 0.00 0.51 0.23 78 1011.5
20260507233222 13 328 16.1 25.7 0.00 0.51 0.23 78 1011.5
20260507233118 13 281 16.1 25.7 0.00 0.51 0.23 79 1011.5
20260507233018 13 304 16.1 25.7 0.00 0.51 0.23 79 1011.4
20260507232918 13 311 16.1 25.7 0.00 0.51 0.23 79 1011.5
20260507232817 13 325 16.1 25.7 0.00 0.51 0.23 79 1011.4
20260507232718 13 321 17.7 30.6 0.00 0.51 0.23 79 1011.4
20260507232618 13 313 17.7 32.2 0.00 0.51 0.23 79 1011.3
20260507232518 13 336 17.7 32.2 0.00 0.51 0.23 79 1011.3
20260507232417 13 306 17.7 32.2 0.00 0.51 0.23 78 1011.3
20260507232317 13 314 17.7 32.2 0.00 0.51 0.23 78 1011.3
20260507232217 13 318 17.7 32.2 0.00 0.51 0.23 78 1011.3
20260507232115 13 321 17.7 32.2 0.00 0.51 0.23 78 1011.2
20260507232014 13 304 17.7 32.2 0.00 0.51 0.23 78 1011.3
20260507231914 13 287 17.7 32.2 0.00 0.51 0.23 78 1011.2
20260507231815 13 331 17.7 32.2 0.00 0.51 0.23 78 1011.2
20260507231715 13 314 16.1 32.2 0.00 0.51 0.23 78 1011.2
20260507231615 13 339 16.1 27.4 0.00 0.51 0.23 78 1011.1
20260507231514 13 328 16.1 27.4 0.00 0.51 0.23 78 1011.1
20260507231410 13 325 16.1 27.4 0.00 0.51 0.23 79 1011.2
20260507231309 13 307 16.1 27.4 0.00 0.51 0.23 79 1011.2
20260507231210 13 275 16.1 27.4 0.00 0.51 0.23 78 1011.2
20260507231108 13 327 16.1 27.4 0.00 0.51 0.23 78 1011.1
20260507231009 13 291 16.1 25.7 0.00 0.51 0.23 78 1011.1
20260507230859 13 303 14.5 25.7 0.00 0.51 0.23 79 1011.2
20260507230759 13 319 16.1 25.7 0.00 0.51 0.23 79 1011.1
20260507230659 13 304 16.1 29.0 0.00 0.51 0.23 78 1011.0
20260507230558 13 302 16.1 29.0 0.00 0.51 0.23 78 1011.1
20260507230459 13 329 16.1 29.0 0.00 0.51 0.23 78 1011.0
20260507230353 14 295 16.1 29.0 0.00 0.51 0.23 78 1011.1
20260507230254 14 315 16.1 29.0 0.00 0.51 0.23 78 1011.1
20260507230153 14 290 16.1 29.0 0.00 0.51 0.23 78 1011.0
20260507230053 14 311 16.1 29.0 0.00 0.51 0.23 78 1011.1
20260507225953 14 301 16.1 29.0 0.00 0.51 0.23 78 1011.0
20260507225849 14 323 16.1 29.0 0.00 0.51 0.23 78 1011.1
20260507225746 14 306 16.1 27.4 0.00 0.51 0.23 78 1011.0
20260507225647 14 319 16.1 27.4 0.00 0.51 0.23 78 1011.0
20260507225547 14 317 14.5 27.4 0.00 0.51 0.23 79 1010.9
20260507225447 14 331 14.5 27.4 0.00 0.51 0.23 79 1010.9
20260507225336 14 308 14.5 27.4 0.00 0.51 0.23 79 1010.9
20260507225236 14 304 14.5 25.7 0.00 0.51 0.23 79 1011.0
20260507225136 14 331 14.5 25.7 0.00 0.51 0.23 79 1011.0
20260507225037 14 319 14.5 25.7 0.00 0.51 0.23 80 1011.0
20260507224935 14 303 14.5 25.7 0.00 0.51 0.23 80 1011.0
20260507224829 13 311 14.5 25.7 0.00 0.51 0.23 80 1010.9
20260507224729 13 329 16.1 25.7 0.00 0.51 0.23 80 1010.9
20260507224629 13 325 16.1 25.7 0.00 0.51 0.23 80 1010.9
20260507224528 13 327 16.1 25.7 0.00 0.51 0.23 81 1011.0
20260507224428 13 314 14.5 25.7 0.00 0.51 0.23 81 1011.1
20260507224323 13 331 14.5 25.7 0.00 0.51 0.23 80 1011.0
20260507224223 13 319 14.5 25.7 0.00 0.51 0.23 80 1011.0
20260507224123 13 298 14.5 25.7 0.00 0.51 0.23 80 1011.0
20260507224024 13 315 14.5 25.7 0.00 0.51 0.23 80 1010.9
20260507223922 13 304 12.9 25.7 0.00 0.51 0.23 80 1011.0
20260507223813 13 309 12.9 25.7 0.00 0.51 0.23 80 1010.9
20260507223713 13 336 12.9 20.9 0.00 0.51 0.23 81 1011.0
20260507223613 13 344 12.9 20.9 0.00 0.51 0.23 81 1010.9
20260507223512 14 298 11.3 20.9 0.00 0.51 0.23 82 1011.0
20260507223413 14 336 11.3 20.9 0.00 0.51 0.23 81 1011.0
20260507223307 14 308 12.9 29.0 0.00 0.51 0.23 82 1010.9
20260507223207 14 319 12.9 29.0 0.00 0.51 0.23 82 1010.9
20260507223107 14 316 12.9 29.0 0.00 0.51 0.23 82 1010.9
20260507223007 14 319 12.9 29.0 0.00 0.51 0.23 82 1010.9
20260507222907 14 298 14.5 29.0 0.00 0.51 0.23 81 1010.9
20260507222801 14 325 14.5 29.0 0.00 0.51 0.23 82 1010.9
20260507222701 14 305 14.5 29.0 0.00 0.51 0.23 82 1010.8
20260507222601 14 306 14.5 29.0 0.00 0.51 0.23 82 1010.8
20260507222500 14 333 16.1 29.0 0.00 0.51 0.23 82 1010.8
20260507222400 14 334 16.1 29.0 0.00 0.51 0.23 82 1010.7
20260507222250 15 301 14.5 25.7 0.00 0.51 0.23 84 1010.6
20260507222150 15 300 14.5 22.5 0.00 0.51 0.23 84 1010.6
20260507222051 15 282 14.5 22.5 0.00 0.51 0.23 84 1010.6
20260507221951 15 355 14.5 22.5 0.00 0.51 0.23 85 1010.7
20260507221850 15 324 14.5 22.5 0.00 0.51 0.23 85 1010.6
20260507221746 15 338 12.9 22.5 0.00 0.51 0.23 85 1010.6
20260507221646 15 28 12.9 22.5 0.00 0.51 0.23 85 1010.6
20260507221547 15 311 11.3 20.9 0.00 0.51 0.23 86 1010.7
20260507221446 15 334 11.3 19.3 0.00 0.51 0.23 86 1010.6
20260507221344 15 319 11.3 19.3 0.00 0.51 0.23 86 1010.6
20260507221239 15 351 11.3 19.3 0.00 0.51 0.23 85 1010.6
20260507221138 15 325 9.7 19.3 0.00 0.51 0.23 85 1010.5
20260507221039 15 351 9.7 19.3 0.00 0.51 0.23 85 1010.5
20260507220940 15 313 9.7 19.3 0.00 0.51 0.23 85 1010.6
20260507220838 15 336 8.0 19.3 0.00 0.51 0.23 85 1010.4
20260507220729 15 355 8.0 16.1 0.00 0.51 0.23 85 1010.5
20260507220628 15 348 8.0 16.1 0.00 0.51 0.23 85 1010.4
20260507220529 15 13 8.0 16.1 0.00 0.51 0.23 85 1010.4
20260507220428 16 334 6.4 16.1 0.00 0.51 0.23 85 1010.4
20260507220329 16 335 6.4 14.5 0.00 0.51 0.23 85 1010.5
20260507220222 16 333 6.4 12.9 0.00 0.51 0.23 85 1010.2
20260507220122 16 312 4.8 12.9 0.00 0.51 0.23 84 1010.4
20260507220022 16 310 4.8 12.9 0.00 0.51 0.23 84 1010.5
20260507215923 16 309 4.8 12.9 0.00 0.51 0.23 84 1010.4
20260507215822 16 328 4.8 14.5 0.00 0.51 0.23 84 1010.4
20260507215722 16 22 6.4 14.5 0.00 0.51 0.23 84 1010.2
20260507215621 16 0 6.4 14.5 0.00 0.51 0.23 83 1010.2
20260507215520 16 19 6.4 14.5 0.00 0.51 0.23 84 1010.1
20260507215419 16 9 6.4 14.5 0.00 0.51 0.23 84 1010.2
20260507215317 16 14 6.4 14.5 0.00 0.51 0.23 84 1010.4
20260507215207 16 344 6.4 14.5 0.00 0.51 0.23 83 1010.4
20260507215108 16 347 6.4 14.5 0.00 0.51 0.23 84 1010.2
20260507215007 16 348 6.4 14.5 0.00 0.51 0.23 84 1010.2
20260507214906 16 346 6.4 14.5 0.00 0.51 0.23 84 1010.1
20260507214806 16 321 6.4 12.9 0.00 0.51 0.23 84 1010.1
20260507214702 16 40 6.4 12.9 0.00 0.51 0.23 84 1010.1
20260507214601 16 11 6.4 12.9 0.00 0.51 0.23 84 1010.0
20260507214501 16 30 6.4 12.9 0.00 0.51 0.23 84 1010.1
20260507214401 16 31 6.4 12.9 0.00 0.51 0.23 84 1010.0
20260507214301 16 5 6.4 12.9 0.00 0.51 0.23 84 1010.0
20260507214158 16 30 6.4 12.9 0.00 0.51 0.23 84 1010.0
20260507214058 16 38 4.8 12.9 0.00 0.51 0.23 84 1010.0
20260507213957 16 53 4.8 12.9 0.00 0.51 0.23 84 1010.0
20260507213857 16 355 4.8 12.9 0.00 0.51 0.23 84 1010.1
20260507213754 16 25 4.8 11.3 0.00 0.51 0.23 84 1010.1
20260507213649 16 21 4.8 11.3 0.00 0.51 0.23 83 1010.2
20260507213548 16 46 4.8 11.3 0.00 0.51 0.23 83 1010.1
20260507213447 16 32 4.8 11.3 0.00 0.51 0.23 84 1010.1
20260507213345 16 38 4.8 11.3 0.00 0.51 0.23 84 1010.0
20260507213246 16 49 6.4 12.9 0.00 0.51 0.23 84 1010.1
20260507213145 16 79 6.4 12.9 0.00 0.51 0.23 84 1010.0
20260507213042 16 80 6.4 12.9 0.00 0.51 0.23 83 1010.0
20260507212943 16 78 4.8 12.9 0.00 0.51 0.23 83 1009.9
20260507212841 16 55 4.8 12.9 0.00 0.51 0.23 83 1009.8
20260507212739 16 80 4.8 12.9 0.00 0.51 0.23 83 1009.8
20260507212634 16 78 4.8 12.9 0.00 0.51 0.23 83 1009.8
20260507212531 16 59 4.8 12.9 0.00 0.51 0.23 83 1009.7
20260507212433 16 67 3.2 12.9 0.00 0.51 0.23 83 1009.8
20260507212334 16 86 3.2 12.9 0.00 0.51 0.23 84 1009.7
20260507212233 16 63 1.6 8.0 0.00 0.51 0.23 84 1009.8
20260507212123 16 63 1.6 8.0 0.00 0.51 0.23 85 1009.8
20260507212022 16 71 1.6 8.0 0.00 0.51 0.23 84 1009.8
20260507211923 16 28 1.6 8.0 0.00 0.51 0.23 84 1009.8
20260507211823 16 39 1.6 8.0 0.00 0.51 0.23 84 1009.9
20260507211722 16 40 1.6 8.0 0.00 0.51 0.23 84 1009.9
20260507211619 16 34 1.6 8.0 0.00 0.51 0.23 84 1009.8
20260507211517 16 59 0.0 6.4 0.00 0.51 0.23 84 1009.9
20260507211417 16 99 1.6 14.5 0.00 0.51 0.23 84 1009.7
20260507211316 16 36 1.6 14.5 0.00 0.51 0.23 84 1009.7
20260507211217 16 32 1.6 14.5 0.00 0.51 0.23 84 1009.6
20260507211115 16 22 1.6 14.5 0.00 0.51 0.23 84 1009.6
20260507211015 16 5 1.6 14.5 0.00 0.51 0.23 84 1009.6
20260507210914 16 0 1.6 14.5 0.00 0.51 0.23 84 1009.7
20260507210812 16 0 1.6 14.5 0.00 0.51 0.23 84 1009.7
20260507210711 16 5 1.6 14.5 0.00 0.51 0.23 84 1009.6
20260507210601 16 26 1.6 14.5 0.00 0.51 0.23 85 1009.5
20260507210500 16 319 1.6 14.5 0.00 0.51 0.23 85 1009.5
20260507210401 16 351 0.0 6.4 0.00 0.51 0.23 86 1009.5
20260507210259 16 340 0.0 6.4 0.00 0.51 0.23 86 1009.5
20260507210201 16 55 0.0 6.4 0.00 0.51 0.23 84 1009.4
20260507210100 16 61 0.0 6.4 0.00 0.51 0.23 84 1009.4
20260507205959 16 53 0.0 6.4 0.00 0.51 0.23 84 1009.3
20260507205859 16 74 0.0 6.4 0.00 0.51 0.23 84 1009.3
20260507205757 16 71 0.0 6.4 0.00 0.51 0.23 85 1009.3
20260507205655 16 71 0.0 6.4 0.00 0.51 0.23 85 1009.2
20260507205549 16 22 0.0 6.4 0.00 0.51 0.23 85 1009.2
20260507205447 16 69 0.0 4.8 0.00 0.51 0.23 84 1009.3
20260507205349 16 70 0.0 4.8 0.00 0.51 0.23 85 1009.3
20260507205247 16 77 0.0 4.8 0.00 0.51 0.23 86 1009.3
20260507205148 16 22 0.0 4.8 0.00 0.51 0.23 86 1009.3
20260507205040 16 5 0.0 8.0 0.00 0.51 0.23 85 1009.3
20260507204940 16 355 0.0 8.0 0.00 0.51 0.23 85 1009.3
20260507204841 16 339 0.0 8.0 0.00 0.51 0.23 85 1009.3
20260507204740 16 13 0.0 8.0 0.00 0.51 0.23 85 1009.3
20260507204638 16 21 0.0 8.0 0.00 0.51 0.23 84 1009.3
20260507204537 16 39 0.0 8.0 0.00 0.51 0.23 85 1009.3
20260507204437 16 350 0.0 8.0 0.00 0.51 0.23 85 1009.3
20260507204335 16 28 0.0 8.0 0.00 0.51 0.23 85 1009.3
20260507204235 16 65 0.0 8.0 0.00 0.51 0.23 85 1009.3
20260507204132 16 90 0.0 8.0 0.00 0.51 0.23 85 1009.3
20260507204028 16 54 0.0 1.6 0.00 0.51 0.23 85 1009.3
20260507203926 17 49 0.0 1.6 0.00 0.51 0.23 85 1009.3
20260507203827 17 49 0.0 1.6 0.00 0.51 0.23 84 1009.4
20260507203726 17 72 0.0 1.6 0.00 0.51 0.23 84 1009.4
20260507203627 17 74 0.0 1.6 0.00 0.51 0.23 84 1009.3
20260507203520 17 60 0.0 1.6 0.00 0.51 0.23 85 1009.3
20260507203421 17 49 0.0 1.6 0.00 0.51 0.23 85 1009.2
20260507203318 17 46 0.0 1.6 0.00 0.51 0.23 85 1009.2
20260507203219 17 59 0.0 1.6 0.00 0.51 0.23 85 1009.3
20260507203117 17 78 0.0 0.0 0.00 0.51 0.23 85 1009.2
20260507203013 17 96 0.0 1.6 0.00 0.51 0.23 85 1009.3
20260507202910 17 90 0.0 3.2 0.00 0.51 0.23 85 1009.2
20260507202810 17 86 0.0 3.2 0.00 0.51 0.23 85 1009.2
20260507202711 17 57 0.0 3.2 0.00 0.51 0.23 85 1009.2
20260507202610 17 75 0.0 4.8 0.00 0.51 0.23 85 1009.1
20260507202505 17 63 1.6 4.8 0.00 0.51 0.23 85 1009.2
20260507202403 17 61 1.6 6.4 0.00 0.51 0.23 85 1009.1
20260507202307 17 105 1.6 12.9 0.00 0.51 0.23 85 1009.2
20260507202205 17 72 1.6 12.9 0.00 0.51 0.23 85 1009.2
20260507202104 17 82 3.2 12.9 0.00 0.51 0.23 85 1009.2
20260507201958 17 88 4.8 12.9 0.00 0.51 0.23 86 1009.3
20260507201857 17 40 4.8 14.5 0.00 0.51 0.23 86 1009.2
20260507201759 17 51 6.4 14.5 0.00 0.51 0.23 86 1009.1
20260507201657 17 76 6.4 14.5 0.00 0.51 0.23 86 1009.1
20260507201555 17 63 8.0 14.5 0.00 0.51 0.23 86 1009.1
20260507201454 17 57 8.0 16.1 0.00 0.51 0.23 85 1009.1
20260507201353 17 78 8.0 16.1 0.00 0.51 0.23 85 1009.0
20260507201252 17 86 8.0 16.1 0.00 0.51 0.23 85 1009.0
20260507201151 17 82 8.0 16.1 0.00 0.51 0.23 85 1009.0
20260507201048 17 87 9.7 16.1 0.00 0.51 0.23 85 1009.0
20260507200946 17 74 8.0 16.1 0.00 0.51 0.23 85 1009.1
20260507200846 17 67 8.0 16.1 0.00 0.51 0.23 85 1009.1
20260507200744 17 55 9.7 16.1 0.00 0.51 0.23 85 1009.1
20260507200645 17 44 9.7 16.1 0.00 0.51 0.23 86 1009.0
20260507200543 17 40 9.7 16.1 0.00 0.51 0.23 86 1009.0
20260507200435 17 94 8.0 16.1 0.00 0.51 0.23 86 1009.0
20260507200332 17 72 6.4 16.1 0.00 0.51 0.23 86 1009.1
20260507200233 17 78 6.4 16.1 0.00 0.51 0.23 86 1009.0
20260507200132 17 78 4.8 16.1 0.00 0.51 0.23 86 1009.0
20260507200032 17 34 4.8 16.1 0.00 0.51 0.23 85 1009.1
20260507195929 17 76 3.2 14.5 0.00 0.51 0.23 85 1009.1
20260507195826 17 77 3.2 14.5 0.00 0.51 0.23 86 1009.1
20260507195726 17 76 1.6 14.5 0.00 0.51 0.23 86 1009.1
20260507195627 17 63 1.6 14.5 0.00 0.51 0.23 85 1009.1
20260507195527 17 43 0.0 8.0 0.00 0.51 0.23 85 1009.2
20260507195421 17 57 1.6 9.7 0.00 0.51 0.23 86 1009.1
20260507195319 17 63 1.6 12.9 0.00 0.51 0.23 86 1009.0
20260507195221 17 27 3.2 12.9 0.00 0.51 0.23 87 1009.2
20260507195120 17 55 3.2 14.5 0.00 0.51 0.23 87 1009.1
20260507195021 17 44 4.8 14.5 0.00 0.51 0.23 87 1009.2
20260507194911 17 38 6.4 17.7 0.00 0.51 0.23 88 1009.2
20260507194810 16 45 8.0 17.7 0.00 0.51 0.23 88 1009.2
20260507194711 16 86 8.0 17.7 0.00 0.51 0.23 88 1009.2
20260507194611 16 42 9.7 17.7 0.00 0.51 0.23 88 1009.2
20260507194511 16 43 9.7 17.7 0.00 0.51 0.23 87 1009.2
20260507194405 16 93 9.7 17.7 0.00 0.51 0.23 87 1009.2
20260507194305 16 95 9.7 17.7 0.00 0.51 0.23 87 1009.1
20260507194205 16 103 9.7 17.7 0.00 0.51 0.23 87 1009.2
20260507194105 16 78 9.7 17.7 0.00 0.51 0.23 87 1009.2
20260507194005 16 82 8.0 17.7 0.00 0.51 0.23 87 1009.2
20260507193859 16 89 8.0 17.7 0.00 0.51 0.23 88 1009.2
20260507193759 16 77 8.0 17.7 0.00 0.51 0.23 88 1009.2
20260507193658 16 98 9.7 17.7 0.00 0.51 0.23 88 1009.2
20260507193559 16 98 9.7 17.7 0.00 0.51 0.23 88 1009.3
20260507193458 16 93 9.7 17.7 0.00 0.51 0.23 88 1009.3
20260507193349 16 67 9.7 17.7 0.00 0.51 0.23 88 1009.3
20260507193248 16 57 9.7 20.9 0.00 0.51 0.23 89 1009.3
20260507193149 16 71 9.7 20.9 0.00 0.51 0.23 90 1009.2
20260507193047 16 88 9.7 20.9 0.00 0.51 0.23 90 1009.3
20260507192949 16 96 11.3 20.9 0.00 0.51 0.23 89 1009.3
20260507192843 16 98 11.3 20.9 0.00 0.51 0.23 90 1009.4
20260507192742 16 78 11.3 20.9 0.00 0.51 0.23 90 1009.3
20260507192642 15 80 11.3 20.9 0.00 0.51 0.23 90 1009.4
20260507192543 15 71 12.9 20.9 0.00 0.51 0.23 89 1009.3
20260507192443 15 98 11.3 20.9 0.00 0.51 0.23 89 1009.3
20260507192337 15 81 11.3 20.9 0.00 0.51 0.23 89 1009.4
20260507192237 15 93 11.3 19.3 0.00 0.51 0.23 89 1009.4
20260507192137 15 96 11.3 19.3 0.00 0.51 0.23 89 1009.4
20260507192035 15 121 11.3 19.3 0.00 0.51 0.23 89 1009.5
20260507191937 15 102 9.7 19.3 0.00 0.51 0.23 89 1009.5
20260507191827 15 106 11.3 19.3 0.00 0.51 0.23 89 1009.5
20260507191725 15 111 11.3 19.3 0.00 0.51 0.23 89 1009.5
20260507191627 15 77 11.3 20.9 0.00 0.51 0.23 89 1009.6
20260507191526 15 94 11.3 20.9 0.00 0.51 0.23 89 1009.5
20260507191427 15 98 9.7 24.1 0.00 0.51 0.23 89 1009.6
20260507191320 15 82 9.7 24.1 0.00 0.51 0.23 89 1009.6
20260507191221 15 55 11.3 24.1 0.00 0.51 0.23 89 1009.6
20260507191121 15 92 9.7 24.1 0.00 0.51 0.23 89 1009.6
20260507191021 15 107 9.7 24.1 0.00 0.51 0.23 89 1009.5
20260507190921 15 54 9.7 24.1 0.00 0.51 0.23 89 1009.5
20260507190815 15 43 9.7 24.1 0.00 0.51 0.23 88 1009.5
20260507190715 15 60 9.7 24.1 0.00 0.51 0.23 88 1009.5
20260507190614 15 332 9.7 24.1 0.00 0.51 0.23 89 1009.6
20260507190515 15 344 9.7 20.9 0.00 0.51 0.23 88 1009.6
20260507190415 15 26 9.7 20.9 0.00 0.51 0.23 88 1009.6
20260507190305 16 34 9.7 20.9 0.00 0.51 0.23 89 1009.6
20260507190203 16 50 9.7 20.9 0.00 0.51 0.23 89 1009.5
20260507190105 16 23 9.7 20.9 0.00 0.51 0.23 89 1009.6
20260507190005 16 44 11.3 20.9 0.00 0.51 0.23 88 1009.6
20260507185904 16 257 11.3 20.9 0.00 0.51 0.23 88 1009.5
20260507185758 16 5 11.3 20.9 0.00 0.51 0.23 88 1009.4
20260507185659 16 32 9.7 20.9 0.00 0.51 0.23 88 1009.3
20260507185559 16 12 9.7 20.9 0.00 0.51 0.23 88 1009.3
20260507185458 16 30 9.7 19.3 0.00 0.51 0.23 88 1009.4
20260507185358 16 355 9.7 19.3 0.00 0.51 0.23 88 1009.5
20260507185253 16 42 9.7 19.3 0.00 0.51 0.23 88 1009.4
20260507185152 16 30 9.7 19.3 0.00 0.51 0.23 88 1009.4
20260507185053 16 35 8.0 19.3 0.00 0.51 0.23 88 1009.4
20260507184952 16 9 8.0 17.7 0.00 0.51 0.23 87 1009.4
20260507184853 16 22 9.7 17.7 0.00 0.51 0.23 87 1009.4
20260507184743 16 25 9.7 17.7 0.00 0.51 0.23 87 1009.4
20260507184644 16 312 9.7 19.3 0.00 0.51 0.23 87 1009.3
20260507184543 16 69 9.7 19.3 0.00 0.51 0.23 87 1009.3
20260507184445 16 66 9.7 19.3 0.00 0.51 0.23 86 1009.3
20260507184343 16 94 9.7 19.3 0.00 0.51 0.23 86 1009.4
20260507184237 17 59 9.7 19.3 0.00 0.51 0.23 86 1009.4
20260507184136 17 85 9.7 19.3 0.00 0.51 0.23 86 1009.4
20260507184037 17 30 9.7 19.3 0.00 0.51 0.23 86 1009.4
20260507183937 17 24 9.7 19.3 0.00 0.51 0.23 85 1009.4
20260507183837 17 21 9.7 19.3 0.00 0.51 0.23 85 1009.4
20260507183730 17 27 9.7 19.3 0.00 0.51 0.23 86 1009.3
20260507183630 17 35 9.7 19.3 0.00 0.51 0.23 86 1009.1
20260507183530 17 29 9.7 19.3 0.00 0.51 0.23 86 1009.0
20260507183431 17 32 9.7 19.3 0.00 0.51 0.23 86 1009.2
20260507183330 17 69 8.0 19.3 0.00 0.51 0.23 86 1009.3
20260507183221 17 71 8.0 19.3 0.00 0.51 0.23 88 1009.3
20260507183121 17 47 8.0 19.3 0.00 0.51 0.23 87 1009.2
20260507183021 17 59 8.0 19.3 0.00 0.51 0.23 88 1009.2
20260507182920 17 38 8.0 19.3 0.00 0.51 0.23 87 1009.3
20260507182820 17 53 8.0 19.3 0.00 0.51 0.23 87 1009.3
20260507182715 17 5 8.0 19.3 0.00 0.51 0.23 87 1009.4
20260507182613 17 43 8.0 19.3 0.00 0.51 0.23 88 1009.5
20260507182514 17 17 8.0 19.3 0.00 0.51 0.23 87 1009.6
20260507182415 17 338 8.0 19.3 0.00 0.51 0.23 87 1009.6
20260507182315 17 5 9.7 19.3 0.00 0.51 0.23 87 1009.5
20260507182211 17 5 9.7 24.1 0.00 0.51 0.23 86 1009.5
20260507182108 17 22 11.3 25.7 0.00 0.51 0.23 86 1009.5
20260507182009 17 28 12.9 29.0 0.00 0.51 0.23 86 1009.4
20260507181909 17 36 12.9 29.0 0.00 0.51 0.23 86 1009.4
20260507181807 17 53 11.3 29.0 0.00 0.51 0.23 85 1009.4
20260507181657 17 5 9.7 29.0 0.00 0.51 0.23 85 1009.5
20260507181556 17 42 9.7 29.0 0.00 0.51 0.23 84 1009.5
20260507181456 17 10 8.0 29.0 0.00 0.51 0.23 84 1009.5
20260507181356 18 5 8.0 29.0 0.00 0.51 0.23 83 1009.4
20260507181257 18 10 4.8 29.0 0.00 0.51 0.23 82 1009.3
20260507181152 18 332 3.2 29.0 0.00 0.51 0.23 82 1009.3
20260507181053 19 17 1.6 25.7 0.00 0.51 0.23 82 1009.2
20260507180951 19 322 0.0 25.7 0.00 0.51 0.23 83 1009.2
20260507180851 20 11 0.0 0.0 0.00 0.51 0.23 84 1009.1
20260507180752 20 15 0.0 0.0 0.00 0.51 0.23 84 1009.1
20260507180653 20 344 0.0 0.0 0.00 0.51 0.23 84 1009.2
20260507180552 20 41 0.0 0.0 0.00 0.51 0.23 84 1009.1
20260507180451 20 27 0.0 0.0 0.00 0.51 0.23 84 1009.2
20260507180350 20 331 0.0 0.0 0.00 0.51 0.23 84 1009.1
20260507180249 20 315 0.0 0.0 0.00 0.51 0.23 83 1009.0
20260507180139 20 294 0.0 0.0 0.00 0.51 0.23 83 1008.9
20260507180038 20 273 0.0 0.0 0.00 0.51 0.23 83 1009.0
20260507175938 20 273 0.0 0.0 0.00 0.51 0.23 84 1008.9
20260507175837 20 263 0.0 0.0 0.00 0.51 0.23 85 1009.0
20260507175735 20 53 0.0 0.0 0.00 0.51 0.23 84 1009.0
20260507175631 20 53 0.0 0.0 0.00 0.51 0.23 83 1008.9
20260507175529 20 5 0.0 0.0 0.00 0.51 0.23 84 1008.8
20260507175427 20 57 0.0 0.0 0.00 0.51 0.23 83 1008.8
20260507175328 20 93 0.0 0.0 0.00 0.51 0.23 83 1008.8
20260507175228 20 94 0.0 0.0 0.00 0.51 0.23 83 1008.8
20260507175122 20 103 0.0 0.0 0.00 0.51 0.23 83 1008.8
20260507175023 20 101 0.0 0.0 0.00 0.51 0.23 83 1008.6
20260507174922 20 115 0.0 0.0 0.00 0.51 0.23 83 1008.8
20260507174823 20 103 0.0 0.0 0.00 0.51 0.23 82 1008.8
20260507174722 21 90 0.0 0.0 0.00 0.51 0.23 82 1008.8
20260507174613 21 102 0.0 0.0 0.00 0.51 0.23 82 1008.9
20260507174513 21 96 0.0 0.0 0.00 0.51 0.23 81 1008.9
20260507174414 21 92 0.0 0.0 0.00 0.51 0.23 81 1008.9
20260507174315 21 97 0.0 0.0 0.00 0.51 0.23 81 1008.9
20260507174212 21 114 0.0 0.0 0.00 0.51 0.23 81 1008.9
20260507174107 21 106 0.0 0.0 0.00 0.51 0.23 82 1009.0
20260507174007 21 89 0.0 0.0 0.00 0.51 0.23 81 1009.1
20260507173907 21 86 0.0 0.0 0.00 0.51 0.23 80 1009.1
20260507173805 21 86 0.0 0.0 0.00 0.51 0.23 80 1009.2
20260507173707 21 92 0.0 0.0 0.00 0.51 0.23 80 1009.2
20260507173559 21 154 0.0 0.0 0.00 0.51 0.23 81 1009.2
20260507173501 21 97 0.0 0.0 0.00 0.51 0.23 81 1009.1
20260507173400 21 88 0.0 0.0 0.00 0.51 0.23 81 1009.1
20260507173259 21 78 0.0 0.0 0.00 0.51 0.23 80 1009.1
20260507173201 21 80 0.0 0.0 0.00 0.51 0.23 80 1009.0
20260507173056 21 77 0.0 0.0 0.00 0.51 0.23 79 1009.1
20260507172955 21 80 0.0 0.0 0.00 0.51 0.23 79 1009.1
20260507172853 21 85 0.0 0.0 0.00 0.51 0.23 79 1009.0
20260507172752 21 92 0.0 0.0 0.00 0.51 0.23 79 1009.0
20260507172650 21 83 0.0 0.0 0.00 0.51 0.23 79 1009.1
20260507172547 21 122 0.0 0.0 0.00 0.51 0.23 80 1009.1
20260507172345 21 124 0.0 0.0 0.00 0.51 0.23 80 1009.2
20260507172244 21 124 0.0 0.0 0.00 0.51 0.23 80 1009.2
20260507172144 21 128 0.0 0.0 0.00 0.51 0.23 79 1009.3
20260507172040 21 117 0.0 0.0 0.00 0.51 0.23 80 1009.3
20260507171938 21 115 0.0 0.0 0.00 0.51 0.23 80 1009.3
20260507171838 21 121 0.0 0.0 0.00 0.51 0.23 79 1009.2
20260507171738 21 126 0.0 0.0 0.00 0.51 0.23 79 1009.3
20260507171638 21 63 0.0 0.0 0.00 0.51 0.23 80 1009.3
20260507171529 21 61 0.0 0.0 0.00 0.51 0.23 79 1009.3
20260507171430 21 61 0.0 0.0 0.00 0.51 0.23 79 1009.4
20260507171331 21 61 0.0 0.0 0.00 0.51 0.23 80 1009.4
20260507171230 21 61 0.0 0.0 0.00 0.51 0.23 80 1009.3
20260507171129 21 109 0.0 0.0 0.00 0.51 0.23 80 1009.3
20260507171025 21 74 0.0 0.0 0.00 0.53 0.23 80 1009.3
20260507170923 21 71 0.0 0.0 0.00 0.53 0.23 79 1009.2
20260507170821 21 69 0.0 0.0 0.00 0.53 0.23 78 1009.2
20260507170723 21 69 0.0 0.0 0.00 0.53 0.23 79 1009.3
20260507170622 21 59 0.0 0.0 0.00 0.53 0.23 80 1009.2
20260507170518 21 55 0.0 0.0 0.00 0.53 0.23 79 1009.4
20260507170415 21 51 0.0 0.0 0.00 0.53 0.23 78 1009.3
20260507170317 21 51 0.0 0.0 0.00 0.53 0.23 79 1009.4
20260507170215 21 51 0.0 0.0 0.00 0.53 0.23 78 1009.4
20260507170116 21 46 0.0 0.0 0.00 0.53 0.23 78 1009.4
20260507170005 21 45 0.0 0.0 0.00 0.53 0.23 79 1009.3
20260507165906 21 42 0.0 0.0 0.00 0.53 0.23 79 1009.3
20260507165807 21 277 0.0 0.0 0.00 0.56 0.23 79 1009.4
20260507165705 21 270 0.0 0.0 0.00 0.56 0.23 80 1009.4
20260507165607 21 202 0.0 0.0 0.00 0.56 0.23 81 1009.4
20260507165500 21 202 0.0 0.0 0.00 0.56 0.23 80 1009.5
20260507165401 21 202 0.0 0.0 0.00 0.56 0.23 80 1009.4
20260507165301 21 203 0.0 0.0 0.00 0.56 0.23 79 1009.4
20260507165201 21 278 0.0 0.0 0.00 0.56 0.23 79 1009.5
20260507165100 21 275 0.0 0.0 0.00 0.56 0.23 79 1009.6
20260507164957 21 252 0.0 0.0 0.00 0.56 0.23 80 1009.7
20260507164854 21 260 0.0 0.0 0.00 0.56 0.23 81 1009.6
20260507164753 21 260 0.0 0.0 0.00 0.56 0.23 80 1009.6
20260507164653 21 171 0.0 0.0 0.00 0.56 0.23 81 1009.7
20260507164555 21 171 0.0 0.0 0.00 0.56 0.23 80 1009.6
20260507164446 21 222 0.0 0.0 0.00 0.56 0.23 79 1009.5
20260507164345 21 275 0.0 0.0 0.00 0.56 0.23 79 1009.6